Wetterdaten: Mittwoch, 08.08.2018
Datum Zeit Temp. Aussen Temp. o. S. +5cm Feuchte Auss Luftdruck Regen Sonnenschein Regendauer Solar Windben Empfang
08.08.2018 00:00 25,5 C 26,1 C 22,2 C 52 % 1004,0 hPa 0,0 l/m 0 min 0 min 0 W/m 6,8 km/h (2 Bft) 95,74 %
08.08.2018 00:02 25,6 C 26,1 C 22,2 C 52 % 1004,0 hPa 0,0 l/m 0 min 0 min 0 W/m 6,8 km/h (2 Bft) 100,00 %
08.08.2018 00:04 25,6 C 26,1 C 22,8 C 52 % 1004,0 hPa 0,0 l/m 0 min 0 min 0 W/m 9,0 km/h (2 Bft) 100,00 %
08.08.2018 00:08 25,7 C 26,1 C 23,3 C 52 % 1003,9 hPa 0,0 l/m 0 min 0 min 0 W/m 9,0 km/h (2 Bft) 100,00 %
08.08.2018 00:10 25,7 C 26,1 C 23,3 C 52 % 1003,9 hPa 0,0 l/m 0 min 0 min 0 W/m 6,8 km/h (2 Bft) 97,87 %
08.08.2018 00:12 25,8 C 26,1 C 23,3 C 52 % 1003,9 hPa 0,0 l/m 0 min 0 min 0 W/m 6,8 km/h (2 Bft) 100,00 %
08.08.2018 00:14 25,8 C 26,1 C 23,3 C 51 % 1003,8 hPa 0,0 l/m 0 min 0 min 0 W/m 6,8 km/h (2 Bft) 100,00 %
08.08.2018 00:16 25,9 C 26,1 C 23,3 C 51 % 1003,8 hPa 0,0 l/m 0 min 0 min 0 W/m 6,8 km/h (2 Bft) 100,00 %
08.08.2018 00:18 25,9 C 26,1 C 23,3 C 51 % 1003,8 hPa 0,0 l/m 0 min 0 min 0 W/m 6,8 km/h (2 Bft) 97,83 %
08.08.2018 00:20 26,0 C 26,1 C 23,3 C 51 % 1003,8 hPa 0,0 l/m 0 min 0 min 0 W/m 9,0 km/h (2 Bft) 97,87 %
08.08.2018 00:22 26,0 C 26,1 C 23,3 C 51 % 1003,7 hPa 0,0 l/m 0 min 0 min 0 W/m 9,0 km/h (2 Bft) 97,87 %
08.08.2018 00:24 26,1 C 26,1 C 23,3 C 50 % 1003,7 hPa 0,0 l/m 0 min 0 min 0 W/m 11,3 km/h (2 Bft) 97,87 %
08.08.2018 00:26 26,1 C 26,1 C 23,3 C 50 % 1003,7 hPa 0,0 l/m 0 min 0 min 0 W/m 6,8 km/h (2 Bft) 97,87 %
08.08.2018 00:28 26,2 C 26,1 C 23,9 C 50 % 1003,8 hPa 0,0 l/m 0 min 0 min 0 W/m 11,3 km/h (2 Bft) 97,83 %
08.08.2018 00:30 26,2 C 26,1 C 23,9 C 49 % 1003,8 hPa 0,0 l/m 0 min 0 min 0 W/m 13,5 km/h (3 Bft) 97,87 %
08.08.2018 00:32 26,2 C 26,1 C 23,9 C 49 % 1003,9 hPa 0,0 l/m 0 min 0 min 0 W/m 11,3 km/h (2 Bft) 97,30 %
08.08.2018 00:34 26,3 C 26,1 C 24,4 C 48 % 1003,9 hPa 0,0 l/m 0 min 0 min 0 W/m 15,8 km/h (3 Bft) 100,00 %
08.08.2018 00:36 26,4 C 26,1 C 24,4 C 48 % 1003,8 hPa 0,0 l/m 0 min 0 min 0 W/m 13,5 km/h (3 Bft) 100,00 %
08.08.2018 00:38 26,4 C 26,1 C 24,4 C 48 % 1003,9 hPa 0,0 l/m 0 min 0 min 0 W/m 11,3 km/h (2 Bft) 97,87 %
08.08.2018 00:40 26,5 C 26,1 C 24,4 C 48 % 1004,0 hPa 0,0 l/m 0 min 0 min 0 W/m 15,8 km/h (3 Bft) 97,87 %
08.08.2018 00:42 26,5 C 26,1 C 24,4 C 48 % 1003,9 hPa 0,0 l/m 0 min 0 min 0 W/m 11,3 km/h (2 Bft) 97,83 %
08.08.2018 00:44 26,6 C 26,1 C 24,4 C 48 % 1003,7 hPa 0,0 l/m 0 min 0 min 0 W/m 9,0 km/h (2 Bft) 97,87 %
08.08.2018 00:46 26,6 C 26,1 C 24,4 C 47 % 1003,6 hPa 0,0 l/m 0 min 0 min 0 W/m 9,0 km/h (2 Bft) 95,74 %
08.08.2018 00:48 26,6 C 26,1 C 24,4 C 48 % 1003,5 hPa 0,0 l/m 0 min 0 min 0 W/m 6,8 km/h (2 Bft) 97,87 %
08.08.2018 00:50 26,6 C 26,1 C 23,9 C 48 % 1003,5 hPa 0,0 l/m 0 min 0 min 0 W/m 4,5 km/h (1 Bft) 97,87 %
08.08.2018 00:52 26,7 C 26,1 C 23,9 C 48 % 1003,5 hPa 0,0 l/m 0 min 0 min 0 W/m 4,5 km/h (1 Bft) 97,87 %
08.08.2018 00:54 26,7 C 26,1 C 23,9 C 48 % 1003,6 hPa 0,0 l/m 0 min 0 min 0 W/m 4,5 km/h (1 Bft) 97,83 %
08.08.2018 00:56 26,7 C 25,6 C 23,3 C 48 % 1003,5 hPa 0,0 l/m 0 min 0 min 0 W/m 2,3 km/h (1 Bft) 95,74 %
08.08.2018 00:58 26,7 C 25,6 C 23,3 C 48 % 1003,4 hPa 0,0 l/m 0 min 0 min 0 W/m 6,8 km/h (2 Bft) 95,74 %
08.08.2018 01:00 26,7 C 25,6 C 23,3 C 48 % 1003,4 hPa 0,0 l/m 0 min 0 min 0 W/m 4,5 km/h (1 Bft) 97,87 %
08.08.2018 01:02 26,7 C 25,6 C 23,3 C 48 % 1003,6 hPa 0,0 l/m 0 min 0 min 0 W/m 9,0 km/h (2 Bft) 95,74 %
08.08.2018 01:04 26,7 C 25,6 C 23,3 C 48 % 1003,5 hPa 0,0 l/m 0 min 0 min 0 W/m 6,8 km/h (2 Bft) 97,87 %
08.08.2018 01:06 26,7 C 25,6 C 23,3 C 48 % 1003,5 hPa 0,0 l/m 0 min 0 min 0 W/m 4,5 km/h (1 Bft) 97,87 %
08.08.2018 01:08 26,6 C 25,6 C 23,3 C 48 % 1003,6 hPa 0,0 l/m 0 min 0 min 0 W/m 2,3 km/h (1 Bft) 97,87 %
08.08.2018 01:10 26,6 C 25,6 C 23,3 C 48 % 1003,6 hPa 0,0 l/m 0 min 0 min 0 W/m 4,5 km/h (1 Bft) 97,87 %
08.08.2018 01:12 26,6 C 25,6 C 22,8 C 48 % 1003,5 hPa 0,0 l/m 0 min 0 min 0 W/m 4,5 km/h (1 Bft) 97,87 %
08.08.2018 01:14 26,6 C 25,0 C 22,8 C 48 % 1003,5 hPa 0,0 l/m 0 min 0 min 0 W/m 2,3 km/h (1 Bft) 95,74 %
08.08.2018 01:16 26,6 C 25,0 C 22,8 C 48 % 1003,4 hPa 0,0 l/m 0 min 0 min 0 W/m 2,3 km/h (1 Bft) 97,87 %
08.08.2018 01:18 26,6 C 25,0 C 22,8 C 48 % 1003,4 hPa 0,0 l/m 0 min 0 min 0 W/m 2,3 km/h (1 Bft) 97,83 %
08.08.2018 01:20 26,5 C 25,0 C 22,8 C 48 % 1003,5 hPa 0,0 l/m 0 min 0 min 0 W/m 2,3 km/h (1 Bft) 97,87 %
08.08.2018 01:22 26,5 C 25,0 C 22,8 C 49 % 1003,4 hPa 0,0 l/m 0 min 0 min 0 W/m 2,3 km/h (1 Bft) 97,87 %
08.08.2018 01:24 26,4 C 24,4 C 22,8 C 50 % 1003,3 hPa 0,0 l/m 0 min 0 min 0 W/m 0,0 km/h (0 Bft) 97,87 %
08.08.2018 01:26 26,4 C 24,4 C 22,8 C 50 % 1003,3 hPa 0,0 l/m 0 min 0 min 0 W/m 0,0 km/h (0 Bft) 95,74 %
08.08.2018 01:28 26,4 C 24,4 C 22,8 C 50 % 1003,3 hPa 0,0 l/m 0 min 0 min 0 W/m 0,0 km/h (0 Bft) 97,87 %
08.08.2018 01:30 26,3 C 24,4 C 22,2 C 49 % 1003,3 hPa 0,0 l/m 0 min 0 min 0 W/m 2,3 km/h (1 Bft) 97,83 %
08.08.2018 01:32 26,3 C 24,4 C 22,2 C 49 % 1003,3 hPa 0,0 l/m 0 min 0 min 0 W/m 2,3 km/h (1 Bft) 95,24 %
08.08.2018 01:34 26,2 C 24,4 C 22,2 C 50 % 1003,2 hPa 0,0 l/m 0 min 0 min 0 W/m 0,0 km/h (0 Bft) 100,00 %
08.08.2018 01:36 26,2 C 23,9 C 22,2 C 50 % 1003,1 hPa 0,0 l/m 0 min 0 min 0 W/m 2,3 km/h (1 Bft) 100,00 %
08.08.2018 01:38 26,2 C 23,9 C 22,2 C 51 % 1003,0 hPa 0,0 l/m 0 min 0 min 0 W/m 0,0 km/h (0 Bft) 97,83 %
08.08.2018 01:40 26,1 C 23,9 C 22,2 C 51 % 1003,0 hPa 0,0 l/m 0 min 0 min 0 W/m 0,0 km/h (0 Bft) 97,87 %
08.08.2018 01:42 26,0 C 23,3 C 22,2 C 51 % 1003,1 hPa 0,0 l/m 0 min 0 min 0 W/m 0,0 km/h (0 Bft) 97,87 %
08.08.2018 01:44 25,9 C 23,3 C 22,2 C 52 % 1003,2 hPa 0,0 l/m 0 min 0 min 0 W/m 2,3 km/h (1 Bft) 97,87 %
08.08.2018 01:46 25,9 C 23,3 C 22,2 C 52 % 1003,3 hPa 0,0 l/m 0 min 0 min 0 W/m 0,0 km/h (0 Bft) 97,87 %
08.08.2018 01:48 25,8 C 23,3 C 22,2 C 51 % 1003,4 hPa 0,0 l/m 0 min 0 min 0 W/m 2,3 km/h (1 Bft) 97,83 %
08.08.2018 01:50 25,7 C 23,3 C 22,2 C 52 % 1003,3 hPa 0,0 l/m 0 min 0 min 0 W/m 0,0 km/h (0 Bft) 97,87 %
08.08.2018 01:52 25,7 C 23,3 C 22,2 C 53 % 1003,3 hPa 0,0 l/m 0 min 0 min 0 W/m 0,0 km/h (0 Bft) 97,87 %
08.08.2018 01:54 25,6 C 23,3 C 21,7 C 53 % 1003,3 hPa 0,0 l/m 0 min 0 min 0 W/m 0,0 km/h (0 Bft) 95,74 %
08.08.2018 01:56 25,6 C 23,3 C 21,7 C 52 % 1003,3 hPa 0,0 l/m 0 min 0 min 0 W/m 2,3 km/h (1 Bft) 97,87 %
08.08.2018 01:58 25,5 C 23,9 C 21,7 C 52 % 1003,4 hPa 0,0 l/m 0 min 0 min 0 W/m 2,3 km/h (1 Bft) 97,87 %
08.08.2018 02:00 25,5 C 23,9 C 21,7 C 52 % 1003,6 hPa 0,0 l/m 0 min 0 min 0 W/m 0,0 km/h (0 Bft) 97,83 %
08.08.2018 02:02 25,4 C 23,3 C 21,7 C 52 % 1003,7 hPa 0,0 l/m 0 min 0 min 0 W/m 0,0 km/h (0 Bft) 96,36 %
08.08.2018 02:04 25,4 C 23,3 C 21,7 C 53 % 1003,8 hPa 0,0 l/m 0 min 0 min 0 W/m 0,0 km/h (0 Bft) 97,83 %
08.08.2018 02:06 25,3 C 23,3 C 21,7 C 54 % 1004,0 hPa 0,0 l/m 0 min 0 min 0 W/m 4,5 km/h (1 Bft) 95,83 %
08.08.2018 02:08 25,2 C 23,3 C 22,2 C 54 % 1004,1 hPa 0,0 l/m 0 min 0 min 0 W/m 2,3 km/h (1 Bft) 97,87 %
08.08.2018 02:10 25,1 C 23,3 C 22,2 C 54 % 1004,3 hPa 0,0 l/m 0 min 0 min 0 W/m 2,3 km/h (1 Bft) 95,74 %
08.08.2018 02:12 25,1 C 23,3 C 22,2 C 55 % 1004,5 hPa 0,0 l/m 0 min 0 min 0 W/m 4,5 km/h (1 Bft) 95,74 %
08.08.2018 02:14 25,1 C 23,3 C 22,2 C 54 % 1004,4 hPa 0,0 l/m 0 min 0 min 0 W/m 4,5 km/h (1 Bft) 95,65 %
08.08.2018 02:16 24,9 C 23,3 C 22,2 C 54 % 1004,5 hPa 0,0 l/m 0 min 0 min 0 W/m 2,3 km/h (1 Bft) 97,87 %
08.08.2018 02:18 24,9 C 23,9 C 22,2 C 52 % 1004,5 hPa 0,0 l/m 0 min 0 min 0 W/m 6,8 km/h (2 Bft) 95,74 %
08.08.2018 02:20 24,8 C 23,9 C 22,8 C 53 % 1004,4 hPa 0,0 l/m 0 min 0 min 0 W/m 4,5 km/h (1 Bft) 95,74 %
08.08.2018 02:22 24,8 C 24,4 C 22,8 C 53 % 1004,4 hPa 0,0 l/m 0 min 0 min 0 W/m 6,8 km/h (2 Bft) 93,62 %
08.08.2018 02:24 24,8 C 24,4 C 23,3 C 53 % 1004,4 hPa 0,0 l/m 0 min 0 min 0 W/m 6,8 km/h (2 Bft) 97,87 %
08.08.2018 02:26 24,8 C 24,4 C 23,3 C 53 % 1004,5 hPa 0,0 l/m 0 min 0 min 0 W/m 6,8 km/h (2 Bft) 97,83 %
08.08.2018 02:28 24,8 C 25,0 C 23,9 C 53 % 1004,5 hPa 0,0 l/m 0 min 0 min 0 W/m 4,5 km/h (1 Bft) 97,87 %
08.08.2018 02:30 24,8 C 24,4 C 23,9 C 53 % 1004,5 hPa 0,0 l/m 0 min 0 min 0 W/m 6,8 km/h (2 Bft) 97,87 %
08.08.2018 02:32 24,8 C 24,4 C 23,9 C 53 % 1004,5 hPa 0,0 l/m 0 min 0 min 0 W/m 4,5 km/h (1 Bft) 91,49 %
08.08.2018 02:34 24,9 C 24,4 C 23,3 C 53 % 1004,6 hPa 0,0 l/m 0 min 0 min 0 W/m 9,0 km/h (2 Bft) 97,87 %
08.08.2018 02:36 24,9 C 24,4 C 23,3 C 53 % 1004,6 hPa 0,0 l/m 0 min 0 min 0 W/m 6,8 km/h (2 Bft) 95,74 %
08.08.2018 02:38 24,9 C 24,4 C 23,9 C 54 % 1004,5 hPa 0,0 l/m 0 min 0 min 0 W/m 9,0 km/h (2 Bft) 95,74 %
08.08.2018 02:40 24,9 C 24,4 C 23,9 C 55 % 1004,5 hPa 0,0 l/m 0 min 0 min 0 W/m 11,3 km/h (2 Bft) 97,83 %
08.08.2018 02:42 25,0 C 25,0 C 23,9 C 55 % 1004,5 hPa 0,0 l/m 0 min 0 min 0 W/m 9,0 km/h (2 Bft) 97,87 %
08.08.2018 02:44 25,1 C 25,0 C 23,9 C 56 % 1004,6 hPa 0,0 l/m 0 min 0 min 0 W/m 11,3 km/h (2 Bft) 97,87 %
08.08.2018 02:46 25,1 C 25,0 C 23,9 C 56 % 1004,5 hPa 0,0 l/m 0 min 0 min 0 W/m 13,5 km/h (3 Bft) 97,87 %
08.08.2018 02:48 25,1 C 25,0 C 23,3 C 57 % 1004,6 hPa 0,0 l/m 0 min 0 min 0 W/m 13,5 km/h (3 Bft) 97,87 %
08.08.2018 02:50 25,1 C 24,4 C 23,9 C 57 % 1004,6 hPa 0,0 l/m 0 min 0 min 0 W/m 15,8 km/h (3 Bft) 97,83 %
08.08.2018 02:52 25,1 C 24,4 C 23,3 C 57 % 1004,6 hPa 0,0 l/m 0 min 0 min 0 W/m 9,0 km/h (2 Bft) 97,87 %
08.08.2018 02:54 25,2 C 24,4 C 23,3 C 57 % 1004,6 hPa 0,0 l/m 0 min 0 min 0 W/m 6,8 km/h (2 Bft) 97,87 %
08.08.2018 02:56 25,2 C 24,4 C 23,3 C 58 % 1004,6 hPa 0,0 l/m 0 min 0 min 0 W/m 4,5 km/h (1 Bft) 97,87 %
08.08.2018 02:58 25,2 C 24,4 C 23,3 C 58 % 1004,5 hPa 0,0 l/m 0 min 0 min 0 W/m 9,0 km/h (2 Bft) 97,87 %
08.08.2018 03:00 25,2 C 24,4 C 23,3 C 58 % 1004,4 hPa 0,0 l/m 0 min 0 min 0 W/m 2,3 km/h (1 Bft) 97,87 %
08.08.2018 03:02 25,2 C 23,9 C 23,3 C 58 % 1004,4 hPa 0,0 l/m 0 min 0 min 0 W/m 2,3 km/h (1 Bft) 97,83 %
08.08.2018 03:04 25,2 C 23,9 C 23,3 C 58 % 1004,4 hPa 0,0 l/m 0 min 0 min 0 W/m 2,3 km/h (1 Bft) 97,87 %
08.08.2018 03:08 25,2 C 23,9 C 22,8 C 58 % 1004,7 hPa 0,0 l/m 0 min 0 min 0 W/m 6,8 km/h (2 Bft) 98,95 %
08.08.2018 03:10 25,2 C 23,9 C 23,3 C 58 % 1005,0 hPa 0,0 l/m 0 min 0 min 0 W/m 2,3 km/h (1 Bft) 100,00 %
08.08.2018 03:12 25,2 C 23,9 C 23,3 C 59 % 1005,2 hPa 0,0 l/m 0 min 0 min 0 W/m 2,3 km/h (1 Bft) 100,00 %
08.08.2018 03:14 25,2 C 23,9 C 23,3 C 59 % 1005,3 hPa 0,0 l/m 0 min 0 min 0 W/m 2,3 km/h (1 Bft) 100,00 %
08.08.2018 03:16 25,2 C 23,9 C 23,3 C 60 % 1005,5 hPa 0,0 l/m 0 min 0 min 0 W/m 2,3 km/h (1 Bft) 97,87 %
08.08.2018 03:18 25,2 C 23,9 C 23,3 C 60 % 1005,6 hPa 0,0 l/m 0 min 0 min 0 W/m 2,3 km/h (1 Bft) 100,00 %
08.08.2018 03:20 25,1 C 23,9 C 23,3 C 60 % 1005,6 hPa 0,0 l/m 0 min 0 min 0 W/m 2,3 km/h (1 Bft) 100,00 %
08.08.2018 03:22 25,1 C 23,9 C 23,3 C 60 % 1005,7 hPa 0,0 l/m 0 min 0 min 0 W/m 4,5 km/h (1 Bft) 100,00 %
08.08.2018 03:24 25,1 C 23,9 C 23,3 C 60 % 1005,7 hPa 0,0 l/m 0 min 0 min 0 W/m 4,5 km/h (1 Bft) 97,83 %
08.08.2018 03:26 25,1 C 23,9 C 23,3 C 61 % 1005,4 hPa 0,0 l/m 0 min 0 min 0 W/m 2,3 km/h (1 Bft) 100,00 %
08.08.2018 03:28 25,1 C 23,9 C 23,3 C 61 % 1005,4 hPa 0,0 l/m 0 min 0 min 0 W/m 2,3 km/h (1 Bft) 100,00 %
08.08.2018 03:30 25,1 C 23,9 C 23,3 C 61 % 1005,4 hPa 0,0 l/m 0 min 0 min 0 W/m 0,0 km/h (0 Bft) 100,00 %
08.08.2018 03:32 25,1 C 23,3 C 23,3 C 61 % 1005,3 hPa 0,0 l/m 0 min 0 min 0 W/m 2,3 km/h (1 Bft) 95,83 %
08.08.2018 03:34 25,0 C 23,3 C 22,8 C 61 % 1005,3 hPa 0,0 l/m 0 min 0 min 0 W/m 4,5 km/h (1 Bft) 100,00 %
08.08.2018 03:36 25,0 C 23,3 C 22,8 C 61 % 1005,2 hPa 0,0 l/m 0 min 0 min 0 W/m 2,3 km/h (1 Bft) 95,74 %
08.08.2018 03:38 24,9 C 23,3 C 22,8 C 61 % 1005,4 hPa 0,0 l/m 0 min 0 min 0 W/m 2,3 km/h (1 Bft) 100,00 %
08.08.2018 03:40 24,9 C 23,3 C 22,8 C 62 % 1005,4 hPa 0,0 l/m 0 min 0 min 0 W/m 2,3 km/h (1 Bft) 100,00 %
08.08.2018 03:42 24,9 C 23,3 C 22,8 C 62 % 1005,4 hPa 0,0 l/m 0 min 0 min 0 W/m 0,0 km/h (0 Bft) 97,83 %
08.08.2018 03:44 24,9 C 23,3 C 22,8 C 62 % 1005,4 hPa 0,0 l/m 0 min 0 min 0 W/m 0,0 km/h (0 Bft) 97,87 %
08.08.2018 03:46 24,8 C 23,3 C 22,8 C 62 % 1005,5 hPa 0,0 l/m 0 min 0 min 0 W/m 2,3 km/h (1 Bft) 100,00 %
08.08.2018 03:48 24,8 C 23,3 C 22,8 C 62 % 1005,5 hPa 0,0 l/m 0 min 0 min 0 W/m 2,3 km/h (1 Bft) 100,00 %
08.08.2018 03:50 24,8 C 23,3 C 22,8 C 62 % 1005,4 hPa 0,0 l/m 0 min 0 min 0 W/m 0,0 km/h (0 Bft) 100,00 %
08.08.2018 03:52 24,8 C 23,3 C 22,8 C 62 % 1005,4 hPa 0,0 l/m 0 min 0 min 0 W/m 2,3 km/h (1 Bft) 97,87 %
08.08.2018 03:54 24,8 C 23,3 C 22,8 C 62 % 1005,2 hPa 0,0 l/m 0 min 0 min 0 W/m 2,3 km/h (1 Bft) 97,83 %
08.08.2018 03:56 24,7 C 23,3 C 22,8 C 62 % 1005,1 hPa 0,0 l/m 0 min 0 min 0 W/m 2,3 km/h (1 Bft) 97,87 %
08.08.2018 03:58 24,7 C 23,3 C 22,8 C 62 % 1005,1 hPa 0,0 l/m 0 min 0 min 0 W/m 4,5 km/h (1 Bft) 93,62 %
08.08.2018 04:00 24,7 C 23,3 C 22,8 C 63 % 1005,0 hPa 0,0 l/m 0 min 0 min 0 W/m 2,3 km/h (1 Bft) 97,87 %
08.08.2018 04:02 24,7 C 23,3 C 22,8 C 63 % 1005,0 hPa 0,0 l/m 0 min 0 min 0 W/m 2,3 km/h (1 Bft) 93,33 %
08.08.2018 04:04 24,7 C 23,3 C 22,8 C 63 % 1005,2 hPa 0,0 l/m 0 min 0 min 0 W/m 2,3 km/h (1 Bft) 95,74 %
08.08.2018 04:06 24,6 C 23,3 C 22,8 C 62 % 1005,2 hPa 0,0 l/m 0 min 0 min 0 W/m 2,3 km/h (1 Bft) 97,83 %
08.08.2018 04:08 24,6 C 23,3 C 22,2 C 63 % 1005,1 hPa 0,0 l/m 0 min 0 min 0 W/m 0,0 km/h (0 Bft) 95,74 %
08.08.2018 04:10 24,6 C 23,3 C 22,2 C 63 % 1005,2 hPa 0,0 l/m 0 min 0 min 0 W/m 4,5 km/h (1 Bft) 97,87 %
08.08.2018 04:12 24,6 C 23,3 C 22,8 C 63 % 1005,1 hPa 0,0 l/m 0 min 0 min 0 W/m 2,3 km/h (1 Bft) 97,87 %
08.08.2018 04:14 24,6 C 23,3 C 22,8 C 64 % 1005,0 hPa 0,0 l/m 0 min 0 min 0 W/m 4,5 km/h (1 Bft) 97,87 %
08.08.2018 04:16 24,5 C 23,3 C 22,8 C 64 % 1004,9 hPa 0,0 l/m 0 min 0 min 0 W/m 4,5 km/h (1 Bft) 95,74 %
08.08.2018 04:18 24,5 C 23,3 C 22,2 C 64 % 1005,0 hPa 0,0 l/m 0 min 0 min 0 W/m 6,8 km/h (2 Bft) 95,65 %
08.08.2018 04:20 24,4 C 23,3 C 22,8 C 64 % 1004,8 hPa 0,0 l/m 0 min 0 min 0 W/m 4,5 km/h (1 Bft) 95,74 %
08.08.2018 04:22 24,4 C 23,3 C 22,8 C 64 % 1004,8 hPa 0,0 l/m 0 min 0 min 0 W/m 4,5 km/h (1 Bft) 91,49 %
08.08.2018 04:24 24,4 C 23,3 C 22,2 C 64 % 1005,0 hPa 0,0 l/m 0 min 2 min 0 W/m 2,3 km/h (1 Bft) 93,62 %
08.08.2018 04:26 24,4 C 23,3 C 22,2 C 65 % 1005,1 hPa 0,0 l/m 0 min 2 min 0 W/m 2,3 km/h (1 Bft) 95,74 %
08.08.2018 04:28 24,4 C 22,8 C 22,8 C 65 % 1005,0 hPa 0,0 l/m 0 min 0 min 0 W/m 2,3 km/h (1 Bft) 91,49 %
08.08.2018 04:30 24,4 C 22,8 C 22,8 C 65 % 1004,8 hPa 0,0 l/m 0 min 0 min 0 W/m 2,3 km/h (1 Bft) 95,65 %
08.08.2018 04:32 24,3 C 22,8 C 22,2 C 65 % 1004,9 hPa 0,0 l/m 0 min 0 min 0 W/m 2,3 km/h (1 Bft) 94,29 %
08.08.2018 04:34 24,3 C 22,8 C 22,2 C 65 % 1004,8 hPa 0,0 l/m 0 min 0 min 0 W/m 2,3 km/h (1 Bft) 95,74 %
08.08.2018 04:36 24,3 C 23,3 C 22,2 C 65 % 1004,7 hPa 0,0 l/m 0 min 0 min 0 W/m 0,0 km/h (0 Bft) 95,74 %
08.08.2018 04:38 24,3 C 23,3 C 22,2 C 65 % 1004,6 hPa 0,0 l/m 0 min 0 min 0 W/m 0,0 km/h (0 Bft) 95,74 %
08.08.2018 04:40 24,3 C 23,3 C 21,7 C 65 % 1004,5 hPa 0,0 l/m 0 min 0 min 0 W/m 2,3 km/h (1 Bft) 93,62 %
08.08.2018 04:42 24,3 C 23,3 C 21,7 C 65 % 1004,4 hPa 0,0 l/m 0 min 0 min 0 W/m 4,5 km/h (1 Bft) 95,74 %
08.08.2018 04:44 24,2 C 23,3 C 22,2 C 65 % 1004,0 hPa 0,0 l/m 0 min 2 min 0 W/m 4,5 km/h (1 Bft) 95,65 %
08.08.2018 04:46 24,2 C 22,8 C 22,2 C 65 % 1004,0 hPa 0,0 l/m 0 min 2 min 0 W/m 0,0 km/h (0 Bft) 93,62 %
08.08.2018 04:48 24,2 C 22,8 C 21,7 C 66 % 1004,2 hPa 0,0 l/m 0 min 0 min 0 W/m 0,0 km/h (0 Bft) 97,87 %
08.08.2018 04:50 24,2 C 22,8 C 22,2 C 67 % 1003,9 hPa 0,0 l/m 0 min 0 min 0 W/m 0,0 km/h (0 Bft) 98,31 %
08.08.2018 04:52 24,2 C 22,8 C 22,2 C 66 % 1003,8 hPa 0,0 l/m 0 min 2 min 0 W/m 0,0 km/h (0 Bft) 94,29 %
08.08.2018 04:54 24,1 C 22,2 C 21,7 C 67 % 1003,9 hPa 0,0 l/m 0 min 2 min 0 W/m 0,0 km/h (0 Bft) 97,87 %
08.08.2018 04:56 24,1 C 22,2 C 21,7 C 68 % 1003,7 hPa 0,0 l/m 0 min 0 min 0 W/m 0,0 km/h (0 Bft) 97,83 %
08.08.2018 04:58 24,1 C 21,7 C 21,7 C 68 % 1003,7 hPa 0,0 l/m 0 min 0 min 0 W/m 0,0 km/h (0 Bft) 100,00 %
08.08.2018 05:00 24,1 C 21,7 C 21,7 C 68 % 1003,8 hPa 0,0 l/m 0 min 0 min 0 W/m 0,0 km/h (0 Bft) 97,87 %
08.08.2018 05:02 24,0 C 21,7 C 21,7 C 68 % 1003,8 hPa 0,0 l/m 0 min 0 min 0 W/m 0,0 km/h (0 Bft) 97,87 %
08.08.2018 05:04 24,0 C 21,7 C 21,1 C 69 % 1003,8 hPa 0,0 l/m 0 min 0 min 0 W/m 0,0 km/h (0 Bft) 95,74 %
08.08.2018 05:06 23,9 C 22,2 C 21,1 C 68 % 1004,0 hPa 0,0 l/m 0 min 0 min 0 W/m 0,0 km/h (0 Bft) 100,00 %
08.08.2018 05:08 23,9 C 22,2 C 21,1 C 68 % 1004,2 hPa 0,0 l/m 0 min 0 min 0 W/m 0,0 km/h (0 Bft) 100,00 %
08.08.2018 05:10 23,9 C 22,2 C 21,7 C 68 % 1004,4 hPa 0,0 l/m 0 min 0 min 0 W/m 0,0 km/h (0 Bft) 100,00 %
08.08.2018 05:12 23,9 C 22,2 C 21,7 C 67 % 1004,7 hPa 0,0 l/m 0 min 0 min 0 W/m 2,3 km/h (1 Bft) 100,00 %
08.08.2018 05:14 23,8 C 22,2 C 21,7 C 68 % 1004,7 hPa 0,0 l/m 0 min 0 min 0 W/m 2,3 km/h (1 Bft) 97,87 %
08.08.2018 05:16 23,8 C 22,2 C 21,7 C 68 % 1005,0 hPa 0,0 l/m 0 min 0 min 0 W/m 2,3 km/h (1 Bft) 100,00 %
08.08.2018 05:18 23,8 C 22,2 C 21,7 C 69 % 1005,1 hPa 0,0 l/m 0 min 0 min 0 W/m 4,5 km/h (1 Bft) 100,00 %
08.08.2018 05:20 23,7 C 22,2 C 21,7 C 69 % 1005,4 hPa 0,0 l/m 0 min 2 min 0 W/m 0,0 km/h (0 Bft) 97,83 %
08.08.2018 05:22 23,7 C 21,7 C 21,7 C 70 % 1005,5 hPa 0,0 l/m 0 min 2 min 0 W/m 2,3 km/h (1 Bft) 97,87 %
08.08.2018 05:24 23,7 C 21,1 C 21,7 C 71 % 1005,6 hPa 0,0 l/m 0 min 2 min 0 W/m 4,5 km/h (1 Bft) 100,00 %
08.08.2018 05:26 23,7 C 20,0 C 21,1 C 71 % 1005,5 hPa 0,0 l/m 0 min 2 min 0 W/m 6,8 km/h (2 Bft) 100,00 %
08.08.2018 05:28 23,6 C 20,0 C 21,7 C 72 % 1005,5 hPa 0,0 l/m 0 min 2 min 0 W/m 4,5 km/h (1 Bft) 100,00 %
08.08.2018 05:30 23,6 C 20,6 C 21,1 C 72 % 1005,7 hPa 0,0 l/m 0 min 2 min 0 W/m 9,0 km/h (2 Bft) 97,87 %
08.08.2018 05:32 23,5 C 20,6 C 21,1 C 72 % 1005,8 hPa 0,0 l/m 0 min 2 min 0 W/m 6,8 km/h (2 Bft) 98,18 %
08.08.2018 05:34 23,4 C 20,0 C 21,1 C 73 % 1005,9 hPa 0,0 l/m 0 min 2 min 0 W/m 4,5 km/h (1 Bft) 97,83 %
08.08.2018 05:35 23,4 C 20,0 C 21,1 C 74 % 1006,1 hPa 0,0 l/m 0 min 1 min 0 W/m 6,8 km/h (2 Bft) 100,00 %
08.08.2018 05:40 23,3 C 19,4 C 21,1 C 75 % 1006,3 hPa 0,0 l/m 0 min 5 min 0 W/m 4,5 km/h (1 Bft) 95,83 %
08.08.2018 05:42 23,3 C 19,4 C 21,1 C 76 % 1006,3 hPa 0,2 l/m 0 min 2 min 0 W/m 0,0 km/h (0 Bft) 97,83 %
08.08.2018 05:44 23,3 C 18,9 C 21,1 C 77 % 1006,3 hPa 0,0 l/m 0 min 2 min 0 W/m 2,3 km/h (1 Bft) 97,87 %
08.08.2018 05:46 23,2 C 18,9 C 21,1 C 78 % 1006,4 hPa 0,0 l/m 0 min 2 min 0 W/m 2,3 km/h (1 Bft) 100,00 %
08.08.2018 05:48 23,2 C 18,9 C 21,1 C 79 % 1006,5 hPa 0,0 l/m 0 min 2 min 0 W/m 4,5 km/h (1 Bft) 97,87 %
08.08.2018 05:50 23,1 C 18,9 C 19,4 C 79 % 1006,6 hPa 0,2 l/m 0 min 2 min 0 W/m 2,3 km/h (1 Bft) 98,31 %
08.08.2018 05:52 23,1 C 18,9 C 19,4 C 79 % 1006,7 hPa 0,0 l/m 0 min 2 min 0 W/m 0,0 km/h (0 Bft) 94,29 %
08.08.2018 05:54 23,1 C 18,9 C 18,9 C 79 % 1007,0 hPa 0,2 l/m 0 min 2 min 0 W/m 0,0 km/h (0 Bft) 97,83 %
08.08.2018 05:56 23,0 C 18,9 C 18,9 C 79 % 1007,0 hPa 0,0 l/m 0 min 2 min 0 W/m 4,5 km/h (1 Bft) 97,87 %
08.08.2018 05:58 22,9 C 18,9 C 18,9 C 80 % 1006,9 hPa 0,2 l/m 0 min 2 min 0 W/m 6,8 km/h (2 Bft) 97,87 %
08.08.2018 06:00 22,9 C 18,9 C 18,9 C 81 % 1007,1 hPa 0,2 l/m 0 min 2 min 0 W/m 4,5 km/h (1 Bft) 97,87 %
08.08.2018 06:02 22,8 C 18,9 C 18,9 C 81 % 1007,1 hPa 0,0 l/m 0 min 2 min 0 W/m 2,3 km/h (1 Bft) 97,87 %
08.08.2018 06:04 22,8 C 18,3 C 18,9 C 81 % 1007,2 hPa 0,2 l/m 0 min 2 min 0 W/m 4,5 km/h (1 Bft) 97,87 %
08.08.2018 06:08 22,6 C 18,3 C 18,9 C 82 % 1007,3 hPa 0,2 l/m 0 min 4 min 0 W/m 0,0 km/h (0 Bft) 96,77 %
08.08.2018 06:10 22,6 C 18,9 C 18,9 C 82 % 1007,4 hPa 0,2 l/m 0 min 2 min 0 W/m 2,3 km/h (1 Bft) 95,74 %
08.08.2018 06:12 22,5 C 18,9 C 18,9 C 83 % 1007,6 hPa 0,0 l/m 0 min 2 min 0 W/m 2,3 km/h (1 Bft) 97,87 %
08.08.2018 06:14 22,4 C 18,9 C 18,9 C 83 % 1007,5 hPa 0,0 l/m 0 min 2 min 0 W/m 2,3 km/h (1 Bft) 97,87 %
08.08.2018 06:16 22,4 C 18,9 C 18,9 C 84 % 1007,7 hPa 0,2 l/m 0 min 2 min 0 W/m 0,0 km/h (0 Bft) 95,74 %
08.08.2018 06:18 22,3 C 18,9 C 18,9 C 84 % 1007,8 hPa 0,0 l/m 0 min 2 min 0 W/m 0,0 km/h (0 Bft) 95,65 %
08.08.2018 06:20 22,2 C 18,9 C 18,9 C 84 % 1007,9 hPa 0,0 l/m 0 min 2 min 0 W/m 2,3 km/h (1 Bft) 97,87 %
08.08.2018 06:22 22,2 C 18,9 C 18,9 C 84 % 1008,1 hPa 0,2 l/m 0 min 2 min 0 W/m 2,3 km/h (1 Bft) 97,87 %
08.08.2018 06:24 22,1 C 18,9 C 18,9 C 85 % 1008,0 hPa 0,0 l/m 0 min 2 min 0 W/m 0,0 km/h (0 Bft) 98,18 %
08.08.2018 06:26 22,1 C 18,9 C 18,9 C 85 % 1008,2 hPa 0,2 l/m 0 min 2 min 0 W/m 4,5 km/h (1 Bft) 97,87 %
08.08.2018 06:28 22,0 C 18,9 C 18,9 C 86 % 1008,3 hPa 0,2 l/m 0 min 2 min 0 W/m 4,5 km/h (1 Bft) 97,87 %
08.08.2018 06:30 21,9 C 18,9 C 18,9 C 86 % 1008,4 hPa 0,2 l/m 0 min 2 min 0 W/m 2,3 km/h (1 Bft) 95,74 %
08.08.2018 06:32 21,9 C 18,9 C 18,9 C 87 % 1008,4 hPa 0,0 l/m 0 min 2 min 0 W/m 2,3 km/h (1 Bft) 95,65 %
08.08.2018 06:34 21,8 C 18,9 C 18,9 C 87 % 1008,4 hPa 0,2 l/m 0 min 2 min 0 W/m 0,0 km/h (0 Bft) 100,00 %
08.08.2018 06:36 21,7 C 18,9 C 18,9 C 87 % 1008,5 hPa 0,2 l/m 0 min 2 min 0 W/m 0,0 km/h (0 Bft) 100,00 %
08.08.2018 06:38 21,7 C 18,9 C 18,9 C 87 % 1008,6 hPa 0,2 l/m 0 min 2 min 0 W/m 2,3 km/h (1 Bft) 100,00 %
08.08.2018 06:40 21,6 C 18,9 C 18,9 C 88 % 1008,6 hPa 0,0 l/m 0 min 2 min 0 W/m 4,5 km/h (1 Bft) 95,74 %
08.08.2018 06:42 21,6 C 18,9 C 18,9 C 88 % 1008,7 hPa 0,2 l/m 0 min 2 min 0 W/m 11,3 km/h (2 Bft) 97,87 %
08.08.2018 06:44 21,4 C 18,3 C 18,9 C 88 % 1008,8 hPa 0,0 l/m 0 min 2 min 0 W/m 11,3 km/h (2 Bft) 97,83 %
08.08.2018 06:46 21,3 C 18,3 C 18,3 C 88 % 1008,8 hPa 0,2 l/m 0 min 2 min 0 W/m 4,5 km/h (1 Bft) 97,87 %
08.08.2018 06:48 21,3 C 18,3 C 18,3 C 89 % 1008,7 hPa 0,2 l/m 0 min 2 min 0 W/m 4,5 km/h (1 Bft) 97,87 %
08.08.2018 06:50 21,2 C 18,3 C 18,3 C 89 % 1008,8 hPa 0,0 l/m 0 min 2 min 0 W/m 9,0 km/h (2 Bft) 95,74 %
08.08.2018 06:52 21,2 C 18,9 C 18,3 C 89 % 1008,7 hPa 0,0 l/m 0 min 2 min 0 W/m 6,8 km/h (2 Bft) 95,74 %
08.08.2018 06:54 21,1 C 18,9 C 18,3 C 89 % 1008,8 hPa 0,0 l/m 0 min 2 min 0 W/m 9,0 km/h (2 Bft) 94,00 %
08.08.2018 06:56 21,0 C 18,9 C 18,3 C 89 % 1008,8 hPa 0,0 l/m 0 min 2 min 0 W/m 4,5 km/h (1 Bft) 97,83 %
08.08.2018 06:58 21,0 C 18,9 C 18,9 C 90 % 1008,8 hPa 0,0 l/m 0 min 2 min 0 W/m 4,5 km/h (1 Bft) 95,74 %
08.08.2018 07:00 20,9 C 18,9 C 18,3 C 90 % 1008,7 hPa 0,0 l/m 0 min 2 min 3 W/m 9,0 km/h (2 Bft) 93,62 %
08.08.2018 07:02 20,9 C 18,9 C 18,9 C 90 % 1008,6 hPa 0,2 l/m 0 min 2 min 5 W/m 4,5 km/h (1 Bft) 93,62 %
08.08.2018 07:04 20,9 C 18,9 C 18,9 C 90 % 1008,5 hPa 0,0 l/m 0 min 2 min 5 W/m 6,8 km/h (2 Bft) 95,74 %
08.08.2018 07:06 20,8 C 18,9 C 18,9 C 91 % 1008,5 hPa 0,0 l/m 0 min 2 min 5 W/m 4,5 km/h (1 Bft) 95,65 %
08.08.2018 07:08 20,8 C 18,9 C 18,9 C 91 % 1008,5 hPa 0,0 l/m 0 min 2 min 6 W/m 4,5 km/h (1 Bft) 95,74 %
08.08.2018 07:10 20,7 C 18,9 C 18,9 C 91 % 1008,4 hPa 0,0 l/m 0 min 2 min 7 W/m 4,5 km/h (1 Bft) 95,74 %
08.08.2018 07:12 20,7 C 18,9 C 18,3 C 91 % 1008,4 hPa 0,0 l/m 0 min 2 min 9 W/m 11,3 km/h (2 Bft) 93,62 %
08.08.2018 07:14 20,7 C 18,9 C 18,3 C 91 % 1008,4 hPa 0,0 l/m 0 min 2 min 9 W/m 9,0 km/h (2 Bft) 95,74 %
08.08.2018 07:16 20,7 C 18,9 C 18,9 C 91 % 1008,3 hPa 0,0 l/m 0 min 2 min 11 W/m 6,8 km/h (2 Bft) 93,62 %
08.08.2018 07:18 20,6 C 18,9 C 18,9 C 92 % 1008,3 hPa 0,0 l/m 0 min 2 min 10 W/m 11,3 km/h (2 Bft) 93,48 %
08.08.2018 07:20 20,6 C 18,9 C 18,9 C 92 % 1008,1 hPa 0,0 l/m 0 min 0 min 8 W/m 11,3 km/h (2 Bft) 95,74 %
08.08.2018 07:22 20,5 C 18,9 C 18,9 C 92 % 1008,0 hPa 0,0 l/m 0 min 0 min 7 W/m 4,5 km/h (1 Bft) 95,74 %
08.08.2018 07:24 20,5 C 18,9 C 18,3 C 92 % 1008,0 hPa 0,0 l/m 0 min 0 min 8 W/m 6,8 km/h (2 Bft) 95,74 %
08.08.2018 07:26 20,4 C 18,9 C 18,3 C 92 % 1007,9 hPa 0,0 l/m 0 min 0 min 9 W/m 9,0 km/h (2 Bft) 93,62 %
08.08.2018 07:28 20,4 C 18,9 C 18,3 C 92 % 1007,9 hPa 0,0 l/m 0 min 0 min 11 W/m 9,0 km/h (2 Bft) 95,74 %
08.08.2018 07:30 20,4 C 18,9 C 18,3 C 92 % 1007,8 hPa 0,0 l/m 0 min 0 min 11 W/m 9,0 km/h (2 Bft) 95,65 %
08.08.2018 07:32 20,4 C 18,9 C 18,3 C 92 % 1007,8 hPa 0,0 l/m 0 min 0 min 11 W/m 9,0 km/h (2 Bft) 95,74 %
08.08.2018 07:34 20,3 C 18,9 C 18,3 C 93 % 1007,7 hPa 0,0 l/m 0 min 0 min 11 W/m 11,3 km/h (2 Bft) 93,62 %
08.08.2018 07:36 20,3 C 18,9 C 18,3 C 93 % 1007,7 hPa 0,0 l/m 0 min 0 min 11 W/m 9,0 km/h (2 Bft) 97,87 %
08.08.2018 07:38 20,3 C 18,9 C 18,3 C 93 % 1007,6 hPa 0,0 l/m 0 min 0 min 12 W/m 4,5 km/h (1 Bft) 97,87 %
08.08.2018 07:40 20,3 C 18,9 C 18,3 C 93 % 1007,5 hPa 0,0 l/m 0 min 0 min 19 W/m 9,0 km/h (2 Bft) 97,87 %
08.08.2018 07:42 20,3 C 18,9 C 18,3 C 93 % 1007,5 hPa 0,0 l/m 0 min 0 min 26 W/m 6,8 km/h (2 Bft) 97,83 %
08.08.2018 07:44 20,3 C 18,9 C 18,3 C 93 % 1007,5 hPa 0,0 l/m 0 min 0 min 28 W/m 6,8 km/h (2 Bft) 97,87 %
08.08.2018 07:46 20,3 C 18,9 C 18,3 C 93 % 1007,5 hPa 0,0 l/m 0 min 0 min 28 W/m 6,8 km/h (2 Bft) 97,87 %
08.08.2018 07:48 20,3 C 18,9 C 18,3 C 93 % 1007,5 hPa 0,0 l/m 0 min 0 min 30 W/m 11,3 km/h (2 Bft) 100,00 %
08.08.2018 07:50 20,3 C 18,9 C 18,3 C 94 % 1007,4 hPa 0,0 l/m 0 min 0 min 34 W/m 4,5 km/h (1 Bft) 100,00 %
08.08.2018 07:52 20,3 C 18,9 C 18,3 C 94 % 1007,3 hPa 0,0 l/m 0 min 0 min 41 W/m 4,5 km/h (1 Bft) 97,87 %
08.08.2018 07:54 20,3 C 18,9 C 18,3 C 94 % 1007,4 hPa 0,0 l/m 0 min 0 min 45 W/m 6,8 km/h (2 Bft) 97,83 %
08.08.2018 07:56 20,3 C 18,9 C 18,3 C 94 % 1007,3 hPa 0,0 l/m 0 min 0 min 48 W/m 4,5 km/h (1 Bft) 97,87 %
08.08.2018 07:58 20,2 C 18,9 C 18,3 C 94 % 1007,3 hPa 0,2 l/m 0 min 0 min 49 W/m 9,0 km/h (2 Bft) 100,00 %
08.08.2018 08:00 20,2 C 18,9 C 18,9 C 94 % 1007,3 hPa 0,0 l/m 0 min 0 min 51 W/m 6,8 km/h (2 Bft) 100,00 %
08.08.2018 08:02 20,2 C 18,9 C 18,3 C 94 % 1007,4 hPa 0,0 l/m 0 min 0 min 53 W/m 6,8 km/h (2 Bft) 100,00 %
08.08.2018 08:04 20,2 C 18,9 C 18,3 C 94 % 1007,4 hPa 0,0 l/m 0 min 0 min 54 W/m 11,3 km/h (2 Bft) 97,87 %
08.08.2018 08:06 20,2 C 18,9 C 18,3 C 94 % 1007,5 hPa 0,0 l/m 0 min 0 min 57 W/m 4,5 km/h (1 Bft) 100,00 %
08.08.2018 08:08 20,2 C 18,9 C 18,9 C 94 % 1007,5 hPa 0,0 l/m 0 min 0 min 60 W/m 6,8 km/h (2 Bft) 100,00 %
08.08.2018 08:10 20,2 C 18,9 C 18,3 C 94 % 1007,4 hPa 0,0 l/m 0 min 0 min 63 W/m 4,5 km/h (1 Bft) 100,00 %
08.08.2018 08:12 20,2 C 18,9 C 18,9 C 94 % 1007,5 hPa 0,0 l/m 0 min 0 min 66 W/m 4,5 km/h (1 Bft) 100,00 %
08.08.2018 08:14 20,2 C 18,9 C 18,9 C 94 % 1007,4 hPa 0,0 l/m 0 min 0 min 69 W/m 9,0 km/h (2 Bft) 100,00 %
08.08.2018 08:16 20,2 C 18,9 C 18,9 C 94 % 1007,5 hPa 0,0 l/m 0 min 0 min 71 W/m 6,8 km/h (2 Bft) 100,00 %
08.08.2018 08:18 20,2 C 18,9 C 18,9 C 94 % 1007,5 hPa 0,0 l/m 0 min 0 min 76 W/m 4,5 km/h (1 Bft) 100,00 %
08.08.2018 08:20 20,2 C 18,9 C 18,9 C 94 % 1007,5 hPa 0,0 l/m 0 min 0 min 77 W/m 4,5 km/h (1 Bft) 100,00 %
08.08.2018 08:22 20,2 C 18,9 C 18,9 C 94 % 1007,5 hPa 0,0 l/m 0 min 0 min 79 W/m 4,5 km/h (1 Bft) 100,00 %
08.08.2018 08:24 20,2 C 18,9 C 18,9 C 94 % 1007,4 hPa 0,0 l/m 0 min 0 min 81 W/m 9,0 km/h (2 Bft) 100,00 %
08.08.2018 08:26 20,2 C 18,9 C 18,9 C 94 % 1007,5 hPa 0,0 l/m 0 min 0 min 81 W/m 6,8 km/h (2 Bft) 100,00 %
08.08.2018 08:28 20,2 C 18,9 C 18,9 C 94 % 1007,3 hPa 0,0 l/m 0 min 0 min 84 W/m 4,5 km/h (1 Bft) 100,00 %
08.08.2018 08:30 20,2 C 18,9 C 18,9 C 94 % 1007,4 hPa 0,0 l/m 0 min 0 min 88 W/m 6,8 km/h (2 Bft) 100,00 %
08.08.2018 08:32 20,2 C 18,9 C 18,9 C 94 % 1007,3 hPa 0,0 l/m 0 min 0 min 92 W/m 11,3 km/h (2 Bft) 100,00 %
08.08.2018 08:34 20,2 C 18,9 C 18,9 C 94 % 1007,2 hPa 0,0 l/m 0 min 0 min 96 W/m 11,3 km/h (2 Bft) 100,00 %
08.08.2018 08:36 20,2 C 18,9 C 18,9 C 94 % 1007,2 hPa 0,0 l/m 0 min 0 min 100 W/m 9,0 km/h (2 Bft) 100,00 %
08.08.2018 08:38 20,2 C 18,9 C 18,9 C 94 % 1007,0 hPa 0,0 l/m 0 min 0 min 104 W/m 6,8 km/h (2 Bft) 100,00 %
08.08.2018 08:40 20,2 C 18,9 C 18,9 C 94 % 1007,0 hPa 0,0 l/m 0 min 0 min 106 W/m 4,5 km/h (1 Bft) 100,00 %
08.08.2018 08:42 20,2 C 19,4 C 18,9 C 94 % 1007,0 hPa 0,0 l/m 0 min 0 min 108 W/m 6,8 km/h (2 Bft) 100,00 %
08.08.2018 08:44 20,2 C 19,4 C 18,9 C 94 % 1007,0 hPa 0,0 l/m 0 min 0 min 110 W/m 2,3 km/h (1 Bft) 100,00 %
08.08.2018 08:46 20,3 C 19,4 C 18,9 C 94 % 1007,0 hPa 0,0 l/m 0 min 0 min 114 W/m 9,0 km/h (2 Bft) 100,00 %
08.08.2018 08:48 20,3 C 19,4 C 18,9 C 94 % 1006,9 hPa 0,0 l/m 0 min 0 min 120 W/m 4,5 km/h (1 Bft) 100,00 %
08.08.2018 08:50 20,3 C 19,4 C 18,9 C 94 % 1006,8 hPa 0,0 l/m 0 min 0 min 126 W/m 4,5 km/h (1 Bft) 100,00 %
08.08.2018 08:52 20,3 C 19,4 C 18,9 C 94 % 1006,8 hPa 0,0 l/m 0 min 0 min 135 W/m 4,5 km/h (1 Bft) 100,00 %
08.08.2018 08:54 20,3 C 19,4 C 18,9 C 93 % 1006,8 hPa 0,0 l/m 0 min 0 min 143 W/m 2,3 km/h (1 Bft) 100,00 %
08.08.2018 08:56 20,4 C 19,4 C 19,4 C 93 % 1006,7 hPa 0,0 l/m 0 min 0 min 151 W/m 4,5 km/h (1 Bft) 100,00 %
08.08.2018 08:58 20,4 C 19,4 C 19,4 C 93 % 1006,8 hPa 0,0 l/m 0 min 0 min 158 W/m 4,5 km/h (1 Bft) 100,00 %
08.08.2018 09:00 20,5 C 20,0 C 19,4 C 93 % 1006,8 hPa 0,0 l/m 0 min 0 min 162 W/m 13,5 km/h (3 Bft) 100,00 %
08.08.2018 09:02 20,5 C 19,4 C 19,4 C 93 % 1006,9 hPa 0,0 l/m 0 min 0 min 167 W/m 6,8 km/h (2 Bft) 100,00 %
08.08.2018 09:04 20,6 C 19,4 C 19,4 C 93 % 1006,9 hPa 0,0 l/m 0 min 0 min 175 W/m 4,5 km/h (1 Bft) 100,00 %
08.08.2018 09:06 20,6 C 20,0 C 19,4 C 93 % 1006,8 hPa 0,0 l/m 0 min 0 min 189 W/m 4,5 km/h (1 Bft) 100,00 %
08.08.2018 09:08 20,6 C 20,0 C 19,4 C 93 % 1006,8 hPa 0,0 l/m 0 min 0 min 187 W/m 4,5 km/h (1 Bft) 97,87 %
08.08.2018 09:10 20,7 C 20,0 C 19,4 C 92 % 1006,9 hPa 0,0 l/m 0 min 0 min 198 W/m 4,5 km/h (1 Bft) 97,87 %
08.08.2018 09:12 20,7 C 20,0 C 20,0 C 92 % 1006,9 hPa 0,0 l/m 2 min 0 min 230 W/m 9,0 km/h (2 Bft) 95,74 %
08.08.2018 09:14 20,8 C 20,0 C 20,0 C 92 % 1006,9 hPa 0,0 l/m 2 min 0 min 305 W/m 13,5 km/h (3 Bft) 95,74 %
08.08.2018 09:16 20,8 C 20,6 C 20,0 C 91 % 1006,9 hPa 0,0 l/m 2 min 0 min 380 W/m 9,0 km/h (2 Bft) 95,65 %
08.08.2018 09:18 20,9 C 20,6 C 20,6 C 91 % 1007,0 hPa 0,0 l/m 2 min 0 min 396 W/m 9,0 km/h (2 Bft) 93,62 %
08.08.2018 09:20 21,0 C 20,6 C 21,1 C 91 % 1006,8 hPa 0,0 l/m 2 min 0 min 420 W/m 15,8 km/h (3 Bft) 97,87 %
08.08.2018 09:22 21,2 C 21,1 C 21,1 C 91 % 1006,9 hPa 0,0 l/m 2 min 0 min 468 W/m 13,5 km/h (3 Bft) 97,92 %
08.08.2018 09:24 21,3 C 21,1 C 21,1 C 90 % 1006,9 hPa 0,0 l/m 2 min 0 min 484 W/m 11,3 km/h (2 Bft) 95,74 %
08.08.2018 09:26 21,4 C 21,1 C 21,7 C 90 % 1006,9 hPa 0,0 l/m 2 min 0 min 488 W/m 9,0 km/h (2 Bft) 95,74 %
08.08.2018 09:28 21,6 C 21,1 C 21,7 C 90 % 1007,0 hPa 0,0 l/m 2 min 0 min 490 W/m 15,8 km/h (3 Bft) 95,65 %
08.08.2018 09:30 21,7 C 21,1 C 21,7 C 89 % 1006,9 hPa 0,0 l/m 2 min 0 min 398 W/m 11,3 km/h (2 Bft) 97,87 %
08.08.2018 09:32 21,8 C 21,1 C 21,7 C 89 % 1006,9 hPa 0,0 l/m 2 min 0 min 320 W/m 9,0 km/h (2 Bft) 97,92 %
08.08.2018 09:34 21,9 C 20,6 C 21,7 C 88 % 1006,9 hPa 0,0 l/m 0 min 0 min 152 W/m 9,0 km/h (2 Bft) 100,00 %
08.08.2018 09:36 22,1 C 20,6 C 21,7 C 87 % 1006,8 hPa 0,0 l/m 0 min 0 min 122 W/m 13,5 km/h (3 Bft) 93,22 %
08.08.2018 09:38 22,1 C 20,6 C 21,7 C 87 % 1006,7 hPa 0,0 l/m 0 min 0 min 114 W/m 13,5 km/h (3 Bft) 93,48 %
08.08.2018 09:40 22,1 C 20,6 C 21,1 C 86 % 1006,8 hPa 0,0 l/m 0 min 0 min 116 W/m 11,3 km/h (2 Bft) 93,62 %
08.08.2018 09:42 22,2 C 20,6 C 21,1 C 85 % 1006,8 hPa 0,0 l/m 0 min 0 min 120 W/m 18,0 km/h (3 Bft) 93,62 %
08.08.2018 09:44 22,2 C 20,6 C 21,1 C 85 % 1006,9 hPa 0,0 l/m 0 min 0 min 121 W/m 6,8 km/h (2 Bft) 94,29 %
08.08.2018 09:46 22,3 C 20,6 C 21,1 C 85 % 1006,9 hPa 0,0 l/m 0 min 0 min 110 W/m 15,8 km/h (3 Bft) 91,67 %
08.08.2018 09:48 22,3 C 21,7 C 21,1 C 84 % 1006,9 hPa 0,0 l/m 0 min 0 min 105 W/m 11,3 km/h (2 Bft) 93,62 %
08.08.2018 09:50 22,3 C 21,7 C 21,1 C 84 % 1007,0 hPa 0,0 l/m 0 min 0 min 102 W/m 13,5 km/h (3 Bft) 93,48 %
08.08.2018 09:52 22,3 C 21,7 C 21,1 C 84 % 1007,1 hPa 0,0 l/m 0 min 0 min 108 W/m 11,3 km/h (2 Bft) 93,62 %
08.08.2018 09:54 22,3 C 22,2 C 21,1 C 84 % 1007,1 hPa 0,0 l/m 0 min 0 min 112 W/m 11,3 km/h (2 Bft) 93,62 %
08.08.2018 09:56 22,3 C 22,2 C 21,1 C 84 % 1007,0 hPa 0,0 l/m 0 min 0 min 124 W/m 9,0 km/h (2 Bft) 91,49 %
08.08.2018 09:58 22,3 C 22,2 C 21,1 C 84 % 1007,2 hPa 0,0 l/m 0 min 0 min 154 W/m 11,3 km/h (2 Bft) 93,62 %
08.08.2018 10:00 22,3 C 22,2 C 21,1 C 84 % 1007,2 hPa 0,0 l/m 0 min 0 min 200 W/m 9,0 km/h (2 Bft) 93,48 %
08.08.2018 10:02 22,3 C 22,8 C 21,1 C 84 % 1007,2 hPa 0,0 l/m 0 min 0 min 218 W/m 11,3 km/h (2 Bft) 93,62 %
08.08.2018 10:04 22,3 C 22,8 C 21,1 C 84 % 1007,3 hPa 0,0 l/m 0 min 0 min 259 W/m 9,0 km/h (2 Bft) 95,74 %
08.08.2018 10:06 22,3 C 23,3 C 21,1 C 84 % 1007,3 hPa 0,0 l/m 2 min 0 min 293 W/m 6,8 km/h (2 Bft) 95,74 %
08.08.2018 10:08 22,4 C 23,3 C 21,7 C 84 % 1007,4 hPa 0,0 l/m 2 min 0 min 322 W/m 6,8 km/h (2 Bft) 93,62 %
08.08.2018 10:10 22,4 C 23,9 C 21,7 C 84 % 1007,4 hPa 0,0 l/m 2 min 0 min 410 W/m 6,8 km/h (2 Bft) 95,74 %
08.08.2018 10:12 22,5 C 23,9 C 21,7 C 84 % 1007,5 hPa 0,0 l/m 2 min 0 min 411 W/m 6,8 km/h (2 Bft) 95,65 %
08.08.2018 10:14 22,6 C 24,4 C 22,2 C 84 % 1007,5 hPa 0,0 l/m 2 min 0 min 401 W/m 9,0 km/h (2 Bft) 93,48 %
08.08.2018 10:16 22,6 C 24,4 C 22,2 C 84 % 1007,6 hPa 0,0 l/m 2 min 0 min 372 W/m 6,8 km/h (2 Bft) 91,67 %
08.08.2018 10:18 22,7 C 23,9 C 22,2 C 84 % 1007,6 hPa 0,0 l/m 0 min 0 min 280 W/m 13,5 km/h (3 Bft) 95,74 %
08.08.2018 10:20 22,8 C 23,9 C 22,2 C 83 % 1007,5 hPa 0,0 l/m 0 min 0 min 288 W/m 6,8 km/h (2 Bft) 95,74 %
08.08.2018 10:22 22,8 C 23,9 C 22,2 C 83 % 1007,5 hPa 0,0 l/m 2 min 0 min 338 W/m 15,8 km/h (3 Bft) 95,74 %
08.08.2018 10:24 22,9 C 23,9 C 22,2 C 83 % 1007,6 hPa 0,0 l/m 2 min 0 min 306 W/m 13,5 km/h (3 Bft) 93,48 %
08.08.2018 10:26 22,9 C 23,9 C 22,2 C 83 % 1007,6 hPa 0,0 l/m 2 min 0 min 328 W/m 6,8 km/h (2 Bft) 97,87 %
08.08.2018 10:28 23,1 C 23,9 C 22,2 C 83 % 1007,6 hPa 0,0 l/m 2 min 0 min 310 W/m 6,8 km/h (2 Bft) 97,87 %
08.08.2018 10:30 23,1 C 23,9 C 22,2 C 82 % 1007,6 hPa 0,0 l/m 0 min 0 min 218 W/m 6,8 km/h (2 Bft) 100,00 %
08.08.2018 10:32 23,1 C 23,9 C 22,2 C 82 % 1007,7 hPa 0,0 l/m 0 min 0 min 198 W/m 6,8 km/h (2 Bft) 97,87 %
08.08.2018 10:34 23,2 C 23,9 C 22,2 C 82 % 1007,7 hPa 0,0 l/m 0 min 0 min 206 W/m 6,8 km/h (2 Bft) 100,00 %
08.08.2018 10:36 23,2 C 23,3 C 22,2 C 82 % 1007,7 hPa 0,0 l/m 0 min 0 min 193 W/m 6,8 km/h (2 Bft) 97,87 %
08.08.2018 10:38 23,2 C 23,3 C 22,2 C 82 % 1007,7 hPa 0,0 l/m 0 min 0 min 165 W/m 9,0 km/h (2 Bft) 100,00 %
08.08.2018 10:40 23,3 C 23,3 C 22,2 C 82 % 1007,7 hPa 0,0 l/m 0 min 0 min 155 W/m 11,3 km/h (2 Bft) 100,00 %
08.08.2018 10:42 23,3 C 23,3 C 22,2 C 81 % 1007,8 hPa 0,0 l/m 0 min 0 min 153 W/m 11,3 km/h (2 Bft) 100,00 %
08.08.2018 10:44 23,3 C 23,3 C 22,2 C 81 % 1007,8 hPa 0,0 l/m 0 min 0 min 197 W/m 6,8 km/h (2 Bft) 100,00 %
08.08.2018 10:46 23,3 C 23,3 C 22,2 C 81 % 1007,8 hPa 0,0 l/m 0 min 0 min 242 W/m 9,0 km/h (2 Bft) 100,00 %
08.08.2018 10:48 23,3 C 23,9 C 22,2 C 81 % 1007,9 hPa 0,0 l/m 0 min 0 min 230 W/m 6,8 km/h (2 Bft) 100,00 %
08.08.2018 10:50 23,4 C 24,4 C 22,2 C 81 % 1007,8 hPa 0,0 l/m 0 min 0 min 296 W/m 6,8 km/h (2 Bft) 100,00 %
08.08.2018 10:52 23,4 C 24,4 C 22,8 C 81 % 1007,9 hPa 0,0 l/m 0 min 0 min 250 W/m 11,3 km/h (2 Bft) 100,00 %
08.08.2018 10:54 23,4 C 23,9 C 22,8 C 81 % 1007,9 hPa 0,0 l/m 0 min 0 min 243 W/m 11,3 km/h (2 Bft) 100,00 %
08.08.2018 10:56 23,5 C 23,9 C 22,8 C 81 % 1008,0 hPa 0,0 l/m 0 min 0 min 193 W/m 6,8 km/h (2 Bft) 100,00 %
08.08.2018 10:58 23,5 C 23,9 C 22,8 C 81 % 1008,0 hPa 0,0 l/m 0 min 0 min 178 W/m 15,8 km/h (3 Bft) 97,83 %
08.08.2018 11:00 23,6 C 23,9 C 22,8 C 80 % 1008,0 hPa 0,0 l/m 0 min 0 min 190 W/m 4,5 km/h (1 Bft) 100,00 %
08.08.2018 11:02 23,6 C 23,9 C 22,8 C 80 % 1008,1 hPa 0,0 l/m 0 min 0 min 145 W/m 9,0 km/h (2 Bft) 100,00 %
08.08.2018 11:04 23,7 C 24,4 C 22,8 C 80 % 1008,1 hPa 0,0 l/m 0 min 0 min 190 W/m 4,5 km/h (1 Bft) 100,00 %
08.08.2018 11:06 23,7 C 24,4 C 22,8 C 80 % 1008,1 hPa 0,0 l/m 0 min 0 min 230 W/m 11,3 km/h (2 Bft) 100,00 %
08.08.2018 11:08 23,7 C 24,4 C 22,8 C 80 % 1008,1 hPa 0,0 l/m 0 min 0 min 229 W/m 13,5 km/h (3 Bft) 100,00 %
08.08.2018 11:10 23,8 C 24,4 C 22,8 C 79 % 1008,1 hPa 0,0 l/m 0 min 0 min 244 W/m 9,0 km/h (2 Bft) 100,00 %
08.08.2018 11:12 23,8 C 24,4 C 22,8 C 79 % 1008,2 hPa 0,0 l/m 0 min 0 min 236 W/m 11,3 km/h (2 Bft) 100,00 %
08.08.2018 11:14 23,8 C 24,4 C 22,8 C 79 % 1008,2 hPa 0,0 l/m 0 min 0 min 202 W/m 6,8 km/h (2 Bft) 100,00 %
08.08.2018 11:16 23,9 C 24,4 C 22,8 C 79 % 1008,3 hPa 0,0 l/m 0 min 0 min 216 W/m 9,0 km/h (2 Bft) 100,00 %
08.08.2018 11:18 23,9 C 23,9 C 22,8 C 78 % 1008,2 hPa 0,0 l/m 0 min 0 min 180 W/m 11,3 km/h (2 Bft) 100,00 %
08.08.2018 11:20 23,9 C 23,9 C 22,8 C 78 % 1008,3 hPa 0,0 l/m 0 min 0 min 203 W/m 11,3 km/h (2 Bft) 100,00 %
08.08.2018 11:22 24,0 C 24,4 C 22,8 C 78 % 1008,3 hPa 0,0 l/m 0 min 0 min 241 W/m 9,0 km/h (2 Bft) 100,00 %
08.08.2018 11:24 24,0 C 24,4 C 22,8 C 78 % 1008,4 hPa 0,0 l/m 0 min 0 min 249 W/m 9,0 km/h (2 Bft) 97,87 %
08.08.2018 11:26 24,1 C 24,4 C 22,8 C 78 % 1008,4 hPa 0,0 l/m 0 min 0 min 212 W/m 11,3 km/h (2 Bft) 100,00 %
08.08.2018 11:28 24,1 C 24,4 C 22,8 C 78 % 1008,5 hPa 0,0 l/m 0 min 0 min 175 W/m 9,0 km/h (2 Bft) 100,00 %
08.08.2018 11:30 24,1 C 24,4 C 22,8 C 78 % 1008,5 hPa 0,0 l/m 0 min 0 min 222 W/m 13,5 km/h (3 Bft) 100,00 %
08.08.2018 11:32 24,1 C 25,0 C 22,8 C 78 % 1008,6 hPa 0,0 l/m 0 min 0 min 336 W/m 6,8 km/h (2 Bft) 100,00 %
08.08.2018 11:34 24,2 C 25,0 C 23,3 C 78 % 1008,7 hPa 0,0 l/m 0 min 0 min 321 W/m 11,3 km/h (2 Bft) 100,00 %
08.08.2018 11:36 24,2 C 25,6 C 23,3 C 78 % 1008,7 hPa 0,0 l/m 0 min 0 min 281 W/m 9,0 km/h (2 Bft) 100,00 %
08.08.2018 11:38 24,3 C 25,0 C 23,3 C 78 % 1008,8 hPa 0,0 l/m 0 min 0 min 139 W/m 9,0 km/h (2 Bft) 100,00 %
08.08.2018 11:40 24,3 C 25,6 C 22,8 C 78 % 1008,8 hPa 0,0 l/m 0 min 0 min 176 W/m 6,8 km/h (2 Bft) 100,00 %
08.08.2018 11:42 24,4 C 27,2 C 23,3 C 78 % 1008,8 hPa 0,0 l/m 0 min 0 min 204 W/m 6,8 km/h (2 Bft) 100,00 %
08.08.2018 11:44 24,5 C 28,3 C 23,3 C 78 % 1008,9 hPa 0,0 l/m 2 min 0 min 470 W/m 6,8 km/h (2 Bft) 100,00 %
08.08.2018 11:46 24,6 C 29,4 C 23,3 C 79 % 1008,8 hPa 0,0 l/m 2 min 0 min 576 W/m 6,8 km/h (2 Bft) 100,00 %
08.08.2018 11:48 24,7 C 30,0 C 23,3 C 79 % 1008,9 hPa 0,0 l/m 2 min 0 min 728 W/m 9,0 km/h (2 Bft) 100,00 %
08.08.2018 11:50 24,9 C 28,9 C 23,9 C 78 % 1008,9 hPa 0,0 l/m 2 min 0 min 396 W/m 9,0 km/h (2 Bft) 100,00 %
08.08.2018 11:52 25,0 C 27,8 C 23,3 C 77 % 1008,9 hPa 0,0 l/m 0 min 0 min 292 W/m 13,5 km/h (3 Bft) 95,74 %
08.08.2018 11:54 25,1 C 27,2 C 23,3 C 75 % 1008,9 hPa 0,0 l/m 0 min 0 min 194 W/m 9,0 km/h (2 Bft) 100,00 %
08.08.2018 11:56 25,1 C 28,3 C 23,3 C 75 % 1009,0 hPa 0,0 l/m 2 min 0 min 612 W/m 11,3 km/h (2 Bft) 100,00 %
08.08.2018 11:58 25,2 C 29,4 C 23,9 C 73 % 1009,0 hPa 0,0 l/m 2 min 0 min 740 W/m 15,8 km/h (3 Bft) 97,87 %
08.08.2018 12:00 25,3 C 30,0 C 23,9 C 71 % 1009,1 hPa 0,0 l/m 2 min 0 min 735 W/m 15,8 km/h (3 Bft) 100,00 %
08.08.2018 12:02 25,4 C 29,4 C 24,4 C 69 % 1009,0 hPa 0,0 l/m 2 min 0 min 733 W/m 18,0 km/h (3 Bft) 97,87 %
08.08.2018 12:04 25,6 C 30,6 C 24,4 C 68 % 1009,1 hPa 0,0 l/m 0 min 0 min 362 W/m 18,0 km/h (3 Bft) 100,00 %
08.08.2018 12:06 25,8 C 31,1 C 24,4 C 68 % 1009,0 hPa 0,0 l/m 2 min 0 min 825 W/m 22,5 km/h (4 Bft) 95,74 %
08.08.2018 12:08 25,9 C 30,6 C 24,4 C 67 % 1009,1 hPa 0,0 l/m 2 min 0 min 780 W/m 11,3 km/h (2 Bft) 100,00 %
08.08.2018 12:10 26,1 C 30,0 C 24,4 C 67 % 1009,1 hPa 0,0 l/m 2 min 0 min 719 W/m 13,5 km/h (3 Bft) 100,00 %
08.08.2018 12:12 26,2 C 28,9 C 24,4 C 66 % 1009,1 hPa 0,0 l/m 2 min 0 min 522 W/m 15,8 km/h (3 Bft) 100,00 %
08.08.2018 12:14 26,3 C 27,2 C 24,4 C 66 % 1009,2 hPa 0,0 l/m 0 min 0 min 348 W/m 18,0 km/h (3 Bft) 95,74 %
08.08.2018 12:16 26,2 C 26,7 C 23,9 C 65 % 1009,2 hPa 0,0 l/m 0 min 0 min 206 W/m 11,3 km/h (2 Bft) 97,92 %
08.08.2018 12:18 26,2 C 26,7 C 24,4 C 66 % 1009,2 hPa 0,0 l/m 0 min 0 min 210 W/m 9,0 km/h (2 Bft) 97,87 %
08.08.2018 12:20 26,2 C 26,1 C 23,9 C 67 % 1009,4 hPa 0,0 l/m 0 min 0 min 204 W/m 11,3 km/h (2 Bft) 97,83 %
08.08.2018 12:22 26,2 C 25,6 C 23,9 C 67 % 1009,4 hPa 0,0 l/m 0 min 0 min 157 W/m 11,3 km/h (2 Bft) 95,74 %
08.08.2018 12:24 26,1 C 25,0 C 23,9 C 67 % 1009,5 hPa 0,0 l/m 0 min 0 min 138 W/m 11,3 km/h (2 Bft) 95,74 %
08.08.2018 12:26 26,0 C 25,0 C 23,9 C 67 % 1009,5 hPa 0,0 l/m 0 min 0 min 158 W/m 13,5 km/h (3 Bft) 95,74 %
08.08.2018 12:28 25,9 C 25,0 C 23,3 C 67 % 1009,6 hPa 0,0 l/m 0 min 0 min 206 W/m 11,3 km/h (2 Bft) 95,74 %
08.08.2018 12:30 25,8 C 25,6 C 23,3 C 68 % 1009,6 hPa 0,0 l/m 0 min 0 min 310 W/m 6,8 km/h (2 Bft) 91,49 %
08.08.2018 12:32 25,8 C 25,6 C 23,3 C 68 % 1009,7 hPa 0,0 l/m 0 min 0 min 307 W/m 11,3 km/h (2 Bft) 93,62 %
08.08.2018 12:34 25,7 C 25,0 C 23,9 C 67 % 1009,8 hPa 0,0 l/m 0 min 0 min 268 W/m 20,3 km/h (4 Bft) 95,74 %
08.08.2018 12:36 25,6 C 25,0 C 23,9 C 68 % 1009,8 hPa 0,0 l/m 0 min 0 min 260 W/m 11,3 km/h (2 Bft) 95,74 %
08.08.2018 12:38 25,6 C 25,6 C 23,9 C 68 % 1009,7 hPa 0,0 l/m 0 min 0 min 284 W/m 11,3 km/h (2 Bft) 95,74 %
08.08.2018 12:40 25,6 C 25,6 C 23,9 C 68 % 1009,7 hPa 0,0 l/m 0 min 0 min 301 W/m 9,0 km/h (2 Bft) 93,62 %
08.08.2018 12:42 25,6 C 26,1 C 23,9 C 68 % 1009,7 hPa 0,0 l/m 0 min 0 min 340 W/m 6,8 km/h (2 Bft) 93,62 %
08.08.2018 12:44 25,5 C 26,1 C 23,9 C 69 % 1009,8 hPa 0,0 l/m 0 min 0 min 328 W/m 6,8 km/h (2 Bft) 93,48 %
08.08.2018 12:46 25,6 C 26,1 C 23,9 C 68 % 1009,7 hPa 0,0 l/m 0 min 0 min 305 W/m 15,8 km/h (3 Bft) 95,83 %
08.08.2018 12:48 25,5 C 25,6 C 23,9 C 68 % 1009,7 hPa 0,0 l/m 0 min 0 min 293 W/m 11,3 km/h (2 Bft) 93,48 %
08.08.2018 12:50 25,5 C 26,1 C 23,9 C 69 % 1009,9 hPa 0,0 l/m 0 min 0 min 296 W/m 20,3 km/h (4 Bft) 93,62 %
08.08.2018 12:52 25,5 C 26,1 C 23,9 C 68 % 1009,9 hPa 0,0 l/m 0 min 0 min 285 W/m 11,3 km/h (2 Bft) 93,62 %
08.08.2018 12:54 25,5 C 26,7 C 24,4 C 68 % 1010,0 hPa 0,0 l/m 2 min 0 min 412 W/m 11,3 km/h (2 Bft) 93,62 %
08.08.2018 12:56 25,6 C 28,9 C 24,4 C 69 % 1009,9 hPa 0,0 l/m 2 min 0 min 475 W/m 9,0 km/h (2 Bft) 95,74 %
08.08.2018 12:58 25,7 C 29,4 C 24,4 C 70 % 1009,9 hPa 0,0 l/m 2 min 0 min 433 W/m 9,0 km/h (2 Bft) 95,74 %
08.08.2018 13:00 25,8 C 29,4 C 25,0 C 69 % 1009,9 hPa 0,0 l/m 2 min 0 min 513 W/m 9,0 km/h (2 Bft) 89,13 %
08.08.2018 13:02 25,9 C 28,9 C 24,4 C 68 % 1010,1 hPa 0,0 l/m 2 min 0 min 409 W/m 22,5 km/h (4 Bft) 95,74 %
08.08.2018 13:04 26,0 C 27,8 C 24,4 C 68 % 1010,0 hPa 0,0 l/m 0 min 0 min 262 W/m 13,5 km/h (3 Bft) 95,74 %
08.08.2018 13:06 26,1 C 26,7 C 24,4 C 67 % 1010,1 hPa 0,0 l/m 0 min 0 min 207 W/m 9,0 km/h (2 Bft) 93,62 %
08.08.2018 13:08 26,0 C 25,6 C 23,9 C 66 % 1010,1 hPa 0,0 l/m 0 min 0 min 156 W/m 11,3 km/h (2 Bft) 93,62 %
08.08.2018 13:10 26,0 C 25,0 C 23,9 C 67 % 1010,1 hPa 0,0 l/m 0 min 0 min 139 W/m 6,8 km/h (2 Bft) 95,74 %
08.08.2018 13:12 25,9 C 25,0 C 23,9 C 67 % 1010,2 hPa 0,0 l/m 0 min 0 min 167 W/m 4,5 km/h (1 Bft) 93,48 %
08.08.2018 13:14 25,9 C 25,6 C 23,9 C 67 % 1010,2 hPa 0,0 l/m 0 min 0 min 243 W/m 6,8 km/h (2 Bft) 95,74 %
08.08.2018 13:16 25,9 C 25,6 C 23,9 C 67 % 1010,1 hPa 0,0 l/m 0 min 0 min 323 W/m 6,8 km/h (2 Bft) 95,74 %
08.08.2018 13:18 25,8 C 25,6 C 23,9 C 67 % 1010,2 hPa 0,0 l/m 0 min 0 min 386 W/m 15,8 km/h (3 Bft) 95,74 %
08.08.2018 13:20 25,8 C 26,1 C 23,9 C 67 % 1010,2 hPa 0,0 l/m 0 min 0 min 363 W/m 6,8 km/h (2 Bft) 97,87 %
08.08.2018 13:22 25,8 C 26,1 C 23,9 C 68 % 1010,2 hPa 0,0 l/m 0 min 0 min 355 W/m 11,3 km/h (2 Bft) 97,87 %
08.08.2018 13:24 25,8 C 25,6 C 23,9 C 67 % 1010,3 hPa 0,0 l/m 0 min 0 min 359 W/m 9,0 km/h (2 Bft) 97,83 %
08.08.2018 13:26 25,7 C 25,6 C 23,9 C 67 % 1010,3 hPa 0,0 l/m 0 min 0 min 303 W/m 9,0 km/h (2 Bft) 97,87 %
08.08.2018 13:28 25,7 C 25,6 C 23,9 C 67 % 1010,4 hPa 0,0 l/m 0 min 0 min 269 W/m 15,8 km/h (3 Bft) 95,74 %
08.08.2018 13:30 25,6 C 25,0 C 23,9 C 67 % 1010,4 hPa 0,0 l/m 0 min 0 min 204 W/m 6,8 km/h (2 Bft) 97,87 %
08.08.2018 13:32 25,6 C 25,0 C 23,9 C 67 % 1010,4 hPa 0,0 l/m 0 min 0 min 145 W/m 9,0 km/h (2 Bft) 95,74 %
08.08.2018 13:34 25,5 C 24,4 C 23,9 C 67 % 1010,5 hPa 0,0 l/m 0 min 0 min 115 W/m 9,0 km/h (2 Bft) 95,74 %
08.08.2018 13:36 25,4 C 24,4 C 23,3 C 68 % 1010,4 hPa 0,0 l/m 0 min 0 min 123 W/m 11,3 km/h (2 Bft) 97,83 %
08.08.2018 13:38 25,4 C 24,4 C 23,3 C 68 % 1010,5 hPa 0,0 l/m 0 min 0 min 137 W/m 4,5 km/h (1 Bft) 97,87 %
08.08.2018 13:40 25,4 C 24,4 C 23,3 C 68 % 1010,5 hPa 0,0 l/m 0 min 0 min 141 W/m 6,8 km/h (2 Bft) 97,87 %
08.08.2018 13:42 25,3 C 24,4 C 23,3 C 68 % 1010,6 hPa 0,0 l/m 0 min 0 min 139 W/m 9,0 km/h (2 Bft) 97,87 %
08.08.2018 13:44 25,3 C 24,4 C 23,3 C 68 % 1010,6 hPa 0,0 l/m 0 min 0 min 151 W/m 6,8 km/h (2 Bft) 97,87 %
08.08.2018 13:46 25,2 C 24,4 C 23,3 C 68 % 1010,7 hPa 0,0 l/m 0 min 0 min 206 W/m 13,5 km/h (3 Bft) 100,00 %
08.08.2018 13:48 25,1 C 24,4 C 23,3 C 68 % 1010,7 hPa 0,0 l/m 0 min 0 min 259 W/m 11,3 km/h (2 Bft) 100,00 %
08.08.2018 13:50 25,1 C 24,4 C 23,3 C 68 % 1010,7 hPa 0,0 l/m 0 min 0 min 296 W/m 11,3 km/h (2 Bft) 100,00 %
08.08.2018 13:52 25,1 C 25,0 C 23,3 C 68 % 1010,7 hPa 0,0 l/m 0 min 0 min 339 W/m 9,0 km/h (2 Bft) 100,00 %
08.08.2018 13:54 25,1 C 25,0 C 23,9 C 69 % 1010,8 hPa 0,0 l/m 0 min 0 min 331 W/m 9,0 km/h (2 Bft) 100,00 %
08.08.2018 13:56 25,0 C 25,0 C 23,9 C 68 % 1010,8 hPa 0,0 l/m 0 min 0 min 295 W/m 15,8 km/h (3 Bft) 100,00 %
08.08.2018 13:58 25,0 C 25,0 C 23,3 C 68 % 1010,8 hPa 0,0 l/m 0 min 0 min 310 W/m 11,3 km/h (2 Bft) 100,00 %
08.08.2018 14:00 25,0 C 25,0 C 23,9 C 68 % 1010,8 hPa 0,0 l/m 0 min 0 min 353 W/m 18,0 km/h (3 Bft) 100,00 %
08.08.2018 14:02 25,0 C 25,0 C 23,9 C 68 % 1010,9 hPa 0,0 l/m 0 min 0 min 332 W/m 9,0 km/h (2 Bft) 100,00 %
08.08.2018 14:04 25,1 C 25,6 C 23,9 C 68 % 1011,0 hPa 0,0 l/m 0 min 0 min 297 W/m 9,0 km/h (2 Bft) 100,00 %
08.08.2018 14:06 25,1 C 25,6 C 23,9 C 69 % 1011,0 hPa 0,0 l/m 0 min 0 min 277 W/m 6,8 km/h (2 Bft) 100,00 %
08.08.2018 14:08 25,1 C 25,0 C 23,9 C 68 % 1011,1 hPa 0,0 l/m 0 min 0 min 309 W/m 13,5 km/h (3 Bft) 100,00 %
08.08.2018 14:10 25,1 C 25,0 C 23,3 C 67 % 1011,1 hPa 0,0 l/m 0 min 0 min 322 W/m 9,0 km/h (2 Bft) 100,00 %
08.08.2018 14:12 25,1 C 25,0 C 23,3 C 67 % 1011,1 hPa 0,0 l/m 0 min 0 min 304 W/m 6,8 km/h (2 Bft) 100,00 %
08.08.2018 14:14 25,1 C 25,0 C 23,3 C 68 % 1011,1 hPa 0,0 l/m 0 min 0 min 259 W/m 6,8 km/h (2 Bft) 100,00 %
08.08.2018 14:16 25,1 C 24,4 C 23,3 C 67 % 1011,2 hPa 0,0 l/m 0 min 0 min 237 W/m 13,5 km/h (3 Bft) 100,00 %
08.08.2018 14:18 25,0 C 24,4 C 23,3 C 67 % 1011,2 hPa 0,0 l/m 0 min 0 min 231 W/m 9,0 km/h (2 Bft) 100,00 %
08.08.2018 14:20 24,9 C 24,4 C 23,3 C 67 % 1011,2 hPa 0,0 l/m 0 min 0 min 238 W/m 6,8 km/h (2 Bft) 100,00 %
08.08.2018 14:22 24,9 C 24,4 C 23,3 C 67 % 1011,2 hPa 0,0 l/m 0 min 0 min 294 W/m 11,3 km/h (2 Bft) 97,83 %
08.08.2018 14:24 24,9 C 25,0 C 23,3 C 67 % 1011,2 hPa 0,0 l/m 0 min 0 min 348 W/m 13,5 km/h (3 Bft) 100,00 %
08.08.2018 14:26 24,9 C 25,0 C 23,3 C 68 % 1011,3 hPa 0,0 l/m 0 min 0 min 321 W/m 9,0 km/h (2 Bft) 100,00 %
08.08.2018 14:28 24,9 C 25,0 C 23,3 C 68 % 1011,3 hPa 0,0 l/m 0 min 0 min 293 W/m 9,0 km/h (2 Bft) 100,00 %
08.08.2018 14:30 24,9 C 25,0 C 23,3 C 68 % 1011,4 hPa 0,0 l/m 0 min 0 min 295 W/m 9,0 km/h (2 Bft) 100,00 %
08.08.2018 14:32 24,9 C 25,0 C 23,3 C 67 % 1011,4 hPa 0,0 l/m 0 min 0 min 362 W/m 11,3 km/h (2 Bft) 100,00 %
08.08.2018 14:34 24,8 C 25,0 C 23,3 C 67 % 1011,5 hPa 0,0 l/m 2 min 0 min 446 W/m 9,0 km/h (2 Bft) 100,00 %
08.08.2018 14:36 24,8 C 24,4 C 23,3 C 67 % 1011,5 hPa 0,0 l/m 0 min 0 min 276 W/m 11,3 km/h (2 Bft) 100,00 %
08.08.2018 14:38 24,8 C 24,4 C 23,3 C 67 % 1011,5 hPa 0,0 l/m 0 min 0 min 263 W/m 9,0 km/h (2 Bft) 100,00 %
08.08.2018 14:40 24,8 C 25,0 C 23,3 C 68 % 1011,5 hPa 0,0 l/m 2 min 0 min 387 W/m 6,8 km/h (2 Bft) 100,00 %
08.08.2018 14:42 24,8 C 25,6 C 23,3 C 68 % 1011,6 hPa 0,0 l/m 2 min 0 min 468 W/m 6,8 km/h (2 Bft) 100,00 %
08.08.2018 14:44 24,8 C 25,0 C 23,3 C 67 % 1011,6 hPa 0,0 l/m 2 min 0 min 402 W/m 11,3 km/h (2 Bft) 100,00 %
08.08.2018 14:46 24,8 C 25,0 C 23,3 C 67 % 1011,5 hPa 0,0 l/m 0 min 0 min 329 W/m 13,5 km/h (3 Bft) 100,00 %
08.08.2018 14:48 24,8 C 25,0 C 23,3 C 67 % 1011,5 hPa 0,0 l/m 0 min 0 min 336 W/m 6,8 km/h (2 Bft) 95,74 %
08.08.2018 14:50 24,7 C 24,4 C 23,3 C 67 % 1011,5 hPa 0,0 l/m 0 min 0 min 312 W/m 9,0 km/h (2 Bft) 97,87 %
08.08.2018 14:52 24,7 C 24,4 C 23,3 C 67 % 1011,5 hPa 0,0 l/m 0 min 0 min 282 W/m 11,3 km/h (2 Bft) 97,87 %
08.08.2018 14:54 24,7 C 24,4 C 23,3 C 67 % 1011,4 hPa 0,0 l/m 0 min 0 min 235 W/m 6,8 km/h (2 Bft) 97,87 %
08.08.2018 14:56 24,7 C 24,4 C 23,3 C 67 % 1011,5 hPa 0,0 l/m 0 min 0 min 230 W/m 18,0 km/h (3 Bft) 97,83 %
08.08.2018 14:58 24,7 C 24,4 C 23,3 C 68 % 1011,5 hPa 0,0 l/m 0 min 0 min 244 W/m 9,0 km/h (2 Bft) 97,87 %
08.08.2018 15:00 24,7 C 24,4 C 23,3 C 68 % 1011,5 hPa 0,0 l/m 0 min 0 min 342 W/m 9,0 km/h (2 Bft) 97,87 %
08.08.2018 15:02 24,7 C 25,0 C 23,3 C 68 % 1011,4 hPa 0,0 l/m 0 min 0 min 310 W/m 6,8 km/h (2 Bft) 97,92 %
08.08.2018 15:04 24,7 C 25,0 C 23,3 C 69 % 1011,4 hPa 0,0 l/m 0 min 0 min 300 W/m 6,8 km/h (2 Bft) 95,65 %
08.08.2018 15:06 24,7 C 25,0 C 23,3 C 69 % 1011,5 hPa 0,0 l/m 0 min 0 min 295 W/m 13,5 km/h (3 Bft) 95,74 %
08.08.2018 15:08 24,7 C 25,0 C 23,3 C 69 % 1011,5 hPa 0,0 l/m 0 min 0 min 272 W/m 9,0 km/h (2 Bft) 97,87 %
08.08.2018 15:10 24,7 C 24,4 C 23,3 C 68 % 1011,5 hPa 0,0 l/m 0 min 0 min 253 W/m 11,3 km/h (2 Bft) 97,87 %
08.08.2018 15:12 24,7 C 24,4 C 23,3 C 68 % 1011,5 hPa 0,0 l/m 0 min 0 min 234 W/m 9,0 km/h (2 Bft) 97,87 %
08.08.2018 15:14 24,6 C 23,9 C 23,3 C 68 % 1011,5 hPa 0,0 l/m 0 min 0 min 207 W/m 9,0 km/h (2 Bft) 97,87 %
08.08.2018 15:16 24,6 C 23,9 C 22,8 C 68 % 1011,6 hPa 0,0 l/m 0 min 0 min 178 W/m 9,0 km/h (2 Bft) 97,83 %
08.08.2018 15:18 24,5 C 23,9 C 22,8 C 68 % 1011,7 hPa 0,0 l/m 0 min 0 min 194 W/m 11,3 km/h (2 Bft) 97,87 %
08.08.2018 15:20 24,5 C 23,9 C 22,8 C 68 % 1011,6 hPa 0,0 l/m 0 min 0 min 203 W/m 6,8 km/h (2 Bft) 97,87 %
08.08.2018 15:22 24,4 C 23,9 C 22,8 C 68 % 1011,7 hPa 0,0 l/m 0 min 0 min 207 W/m 11,3 km/h (2 Bft) 95,74 %
08.08.2018 15:24 24,4 C 23,9 C 22,8 C 69 % 1011,5 hPa 0,0 l/m 0 min 0 min 209 W/m 6,8 km/h (2 Bft) 95,74 %
08.08.2018 15:26 24,3 C 23,3 C 22,8 C 69 % 1011,6 hPa 0,0 l/m 0 min 0 min 193 W/m 9,0 km/h (2 Bft) 97,83 %
08.08.2018 15:28 24,2 C 23,3 C 22,8 C 69 % 1011,7 hPa 0,0 l/m 0 min 0 min 177 W/m 9,0 km/h (2 Bft) 100,00 %
08.08.2018 15:30 24,2 C 23,3 C 22,8 C 69 % 1011,7 hPa 0,0 l/m 0 min 0 min 158 W/m 11,3 km/h (2 Bft) 100,00 %
08.08.2018 15:32 24,1 C 23,3 C 22,8 C 70 % 1011,7 hPa 0,0 l/m 0 min 0 min 160 W/m 11,3 km/h (2 Bft) 97,87 %
08.08.2018 15:34 24,1 C 23,3 C 22,2 C 69 % 1011,6 hPa 0,0 l/m 0 min 0 min 216 W/m 9,0 km/h (2 Bft) 97,87 %
08.08.2018 15:36 24,0 C 23,3 C 22,2 C 70 % 1011,7 hPa 0,0 l/m 0 min 0 min 253 W/m 9,0 km/h (2 Bft) 95,74 %
08.08.2018 15:38 23,9 C 23,3 C 22,8 C 70 % 1011,6 hPa 0,0 l/m 0 min 0 min 228 W/m 13,5 km/h (3 Bft) 95,65 %
08.08.2018 15:40 23,9 C 23,3 C 22,8 C 70 % 1011,6 hPa 0,0 l/m 0 min 0 min 220 W/m 9,0 km/h (2 Bft) 95,74 %
08.08.2018 15:42 23,9 C 23,3 C 22,2 C 70 % 1011,6 hPa 0,0 l/m 0 min 0 min 226 W/m 9,0 km/h (2 Bft) 97,87 %
08.08.2018 15:44 23,8 C 23,9 C 22,2 C 70 % 1011,6 hPa 0,0 l/m 0 min 0 min 223 W/m 9,0 km/h (2 Bft) 97,87 %
08.08.2018 15:46 23,8 C 23,3 C 22,2 C 70 % 1011,8 hPa 0,0 l/m 0 min 0 min 214 W/m 13,5 km/h (3 Bft) 95,74 %
08.08.2018 15:48 23,8 C 23,9 C 22,8 C 71 % 1011,7 hPa 0,0 l/m 0 min 0 min 220 W/m 6,8 km/h (2 Bft) 95,74 %
08.08.2018 15:50 23,8 C 23,9 C 22,8 C 71 % 1011,8 hPa 0,0 l/m 0 min 0 min 257 W/m 11,3 km/h (2 Bft) 97,83 %
08.08.2018 15:52 23,8 C 23,9 C 22,8 C 71 % 1011,6 hPa 0,0 l/m 0 min 0 min 330 W/m 6,8 km/h (2 Bft) 97,87 %
08.08.2018 15:54 23,9 C 24,4 C 22,8 C 71 % 1011,6 hPa 0,0 l/m 2 min 0 min 347 W/m 6,8 km/h (2 Bft) 95,74 %
08.08.2018 15:56 23,9 C 24,4 C 22,8 C 71 % 1011,6 hPa 0,0 l/m 2 min 0 min 348 W/m 6,8 km/h (2 Bft) 95,74 %
08.08.2018 15:58 23,9 C 24,4 C 22,8 C 71 % 1011,6 hPa 0,0 l/m 2 min 0 min 370 W/m 11,3 km/h (2 Bft) 97,87 %
08.08.2018 16:00 23,9 C 25,0 C 22,8 C 71 % 1011,6 hPa 0,0 l/m 2 min 0 min 354 W/m 9,0 km/h (2 Bft) 97,87 %
08.08.2018 16:02 24,0 C 25,0 C 23,3 C 70 % 1011,5 hPa 0,0 l/m 2 min 0 min 395 W/m 13,5 km/h (3 Bft) 97,83 %
08.08.2018 16:04 24,0 C 24,4 C 23,3 C 69 % 1011,5 hPa 0,0 l/m 2 min 0 min 416 W/m 11,3 km/h (2 Bft) 95,74 %
08.08.2018 16:06 24,1 C 25,0 C 23,3 C 69 % 1011,5 hPa 0,0 l/m 2 min 0 min 392 W/m 9,0 km/h (2 Bft) 95,74 %
08.08.2018 16:08 24,1 C 25,0 C 23,3 C 70 % 1011,5 hPa 0,0 l/m 2 min 0 min 341 W/m 6,8 km/h (2 Bft) 97,87 %
08.08.2018 16:10 24,2 C 25,0 C 23,3 C 69 % 1011,6 hPa 0,0 l/m 0 min 0 min 301 W/m 15,8 km/h (3 Bft) 97,87 %
08.08.2018 16:12 24,2 C 24,4 C 23,3 C 68 % 1011,6 hPa 0,0 l/m 0 min 0 min 266 W/m 15,8 km/h (3 Bft) 95,74 %
08.08.2018 16:14 24,2 C 23,9 C 22,8 C 68 % 1011,6 hPa 0,0 l/m 0 min 0 min 218 W/m 9,0 km/h (2 Bft) 95,65 %
08.08.2018 16:16 24,2 C 23,9 C 22,8 C 68 % 1011,6 hPa 0,0 l/m 0 min 0 min 192 W/m 9,0 km/h (2 Bft) 93,62 %
08.08.2018 16:18 24,2 C 23,9 C 22,8 C 68 % 1011,7 hPa 0,0 l/m 0 min 0 min 206 W/m 6,8 km/h (2 Bft) 95,74 %
08.08.2018 16:20 24,2 C 23,9 C 22,8 C 68 % 1011,8 hPa 0,0 l/m 0 min 0 min 186 W/m 9,0 km/h (2 Bft) 95,74 %
08.08.2018 16:22 24,2 C 23,9 C 22,8 C 67 % 1011,8 hPa 0,0 l/m 0 min 0 min 167 W/m 6,8 km/h (2 Bft) 95,74 %
08.08.2018 16:24 24,1 C 23,3 C 22,8 C 67 % 1011,9 hPa 0,0 l/m 0 min 0 min 162 W/m 6,8 km/h (2 Bft) 95,74 %
08.08.2018 16:26 24,1 C 23,3 C 22,8 C 68 % 1011,9 hPa 0,0 l/m 0 min 0 min 161 W/m 13,5 km/h (3 Bft) 95,65 %
08.08.2018 16:28 24,1 C 23,3 C 22,8 C 68 % 1011,9 hPa 0,0 l/m 0 min 0 min 155 W/m 4,5 km/h (1 Bft) 97,87 %
08.08.2018 16:30 24,1 C 23,3 C 22,8 C 68 % 1011,9 hPa 0,0 l/m 0 min 0 min 155 W/m 11,3 km/h (2 Bft) 95,74 %
08.08.2018 16:32 24,0 C 23,3 C 22,8 C 68 % 1011,9 hPa 0,0 l/m 0 min 0 min 151 W/m 11,3 km/h (2 Bft) 95,83 %
08.08.2018 16:34 24,0 C 23,3 C 22,8 C 68 % 1011,9 hPa 0,0 l/m 0 min 0 min 151 W/m 9,0 km/h (2 Bft) 97,87 %
08.08.2018 16:36 23,9 C 23,3 C 22,8 C 69 % 1012,0 hPa 0,0 l/m 0 min 0 min 161 W/m 6,8 km/h (2 Bft) 97,83 %
08.08.2018 16:38 23,9 C 23,3 C 22,8 C 69 % 1012,0 hPa 0,0 l/m 0 min 0 min 177 W/m 6,8 km/h (2 Bft) 97,87 %
08.08.2018 16:40 23,9 C 23,9 C 22,8 C 68 % 1012,0 hPa 0,0 l/m 0 min 0 min 180 W/m 6,8 km/h (2 Bft) 97,87 %
08.08.2018 16:42 23,9 C 23,9 C 22,8 C 68 % 1011,9 hPa 0,0 l/m 0 min 0 min 184 W/m 9,0 km/h (2 Bft) 95,74 %
08.08.2018 16:44 23,9 C 23,3 C 22,8 C 68 % 1012,0 hPa 0,0 l/m 0 min 0 min 167 W/m 9,0 km/h (2 Bft) 93,62 %
08.08.2018 16:46 23,9 C 23,3 C 22,8 C 68 % 1011,9 hPa 0,0 l/m 0 min 0 min 152 W/m 4,5 km/h (1 Bft) 97,14 %
08.08.2018 16:48 23,8 C 23,3 C 22,8 C 69 % 1012,0 hPa 0,0 l/m 0 min 0 min 148 W/m 4,5 km/h (1 Bft) 97,87 %
08.08.2018 16:50 23,8 C 23,3 C 22,8 C 69 % 1011,9 hPa 0,0 l/m 0 min 0 min 149 W/m 6,8 km/h (2 Bft) 96,55 %
08.08.2018 16:52 23,8 C 23,3 C 22,2 C 68 % 1012,0 hPa 0,0 l/m 0 min 0 min 146 W/m 9,0 km/h (2 Bft) 97,87 %
08.08.2018 16:54 23,8 C 23,3 C 22,2 C 68 % 1012,0 hPa 0,0 l/m 0 min 0 min 143 W/m 6,8 km/h (2 Bft) 100,00 %
08.08.2018 16:56 23,8 C 23,3 C 22,2 C 68 % 1012,0 hPa 0,0 l/m 0 min 0 min 140 W/m 9,0 km/h (2 Bft) 94,92 %
08.08.2018 16:58 23,8 C 23,3 C 22,2 C 68 % 1012,0 hPa 0,0 l/m 0 min 0 min 141 W/m 11,3 km/h (2 Bft) 97,14 %
08.08.2018 17:00 23,7 C 23,3 C 22,2 C 68 % 1011,9 hPa 0,0 l/m 0 min 0 min 145 W/m 6,8 km/h (2 Bft) 97,87 %
08.08.2018 17:02 23,7 C 23,3 C 22,2 C 68 % 1011,9 hPa 0,0 l/m 0 min 0 min 155 W/m 9,0 km/h (2 Bft) 97,87 %
08.08.2018 17:04 23,7 C 23,3 C 22,2 C 68 % 1011,9 hPa 0,0 l/m 0 min 0 min 169 W/m 6,8 km/h (2 Bft) 95,65 %
08.08.2018 17:06 23,7 C 23,3 C 22,8 C 68 % 1011,9 hPa 0,0 l/m 0 min 0 min 189 W/m 9,0 km/h (2 Bft) 98,15 %
08.08.2018 17:08 23,7 C 23,3 C 22,8 C 68 % 1011,9 hPa 0,0 l/m 0 min 0 min 225 W/m 4,5 km/h (1 Bft) 100,00 %
08.08.2018 17:10 23,7 C 23,9 C 22,8 C 69 % 1011,9 hPa 0,0 l/m 0 min 0 min 251 W/m 9,0 km/h (2 Bft) 100,00 %
08.08.2018 17:12 23,7 C 23,9 C 22,8 C 69 % 1011,9 hPa 0,0 l/m 0 min 0 min 251 W/m 6,8 km/h (2 Bft) 97,87 %
08.08.2018 17:14 23,7 C 23,9 C 22,8 C 69 % 1012,0 hPa 0,0 l/m 2 min 0 min 303 W/m 9,0 km/h (2 Bft) 100,00 %
08.08.2018 17:16 23,8 C 23,9 C 22,8 C 69 % 1012,0 hPa 0,0 l/m 2 min 0 min 282 W/m 6,8 km/h (2 Bft) 100,00 %
08.08.2018 17:18 23,8 C 24,4 C 22,8 C 69 % 1012,0 hPa 0,0 l/m 0 min 0 min 218 W/m 6,8 km/h (2 Bft) 97,83 %
08.08.2018 17:20 23,8 C 23,9 C 22,8 C 68 % 1012,0 hPa 0,0 l/m 0 min 0 min 190 W/m 9,0 km/h (2 Bft) 97,87 %
08.08.2018 17:22 23,8 C 23,9 C 22,8 C 69 % 1012,0 hPa 0,0 l/m 0 min 0 min 154 W/m 9,0 km/h (2 Bft) 97,87 %
08.08.2018 17:24 23,8 C 23,9 C 22,8 C 68 % 1012,0 hPa 0,0 l/m 0 min 0 min 157 W/m 9,0 km/h (2 Bft) 97,87 %
08.08.2018 17:26 23,8 C 23,9 C 22,8 C 68 % 1012,0 hPa 0,0 l/m 0 min 0 min 154 W/m 9,0 km/h (2 Bft) 93,62 %
08.08.2018 17:28 23,8 C 23,9 C 22,8 C 69 % 1012,0 hPa 0,0 l/m 0 min 0 min 147 W/m 4,5 km/h (1 Bft) 97,87 %
08.08.2018 17:30 23,8 C 23,9 C 22,8 C 68 % 1012,0 hPa 0,0 l/m 0 min 0 min 147 W/m 6,8 km/h (2 Bft) 97,87 %
08.08.2018 17:32 23,9 C 23,9 C 22,8 C 67 % 1011,9 hPa 0,0 l/m 0 min 0 min 157 W/m 4,5 km/h (1 Bft) 100,00 %
08.08.2018 17:34 23,9 C 23,9 C 22,8 C 66 % 1011,9 hPa 0,0 l/m 0 min 0 min 172 W/m 4,5 km/h (1 Bft) 97,87 %
08.08.2018 17:36 23,9 C 23,9 C 22,8 C 66 % 1011,9 hPa 0,0 l/m 0 min 0 min 188 W/m 6,8 km/h (2 Bft) 97,87 %
08.08.2018 17:38 23,9 C 24,4 C 22,8 C 66 % 1011,9 hPa 0,0 l/m 0 min 0 min 211 W/m 4,5 km/h (1 Bft) 97,83 %
08.08.2018 17:40 23,9 C 24,4 C 22,8 C 66 % 1011,9 hPa 0,0 l/m 2 min 0 min 286 W/m 6,8 km/h (2 Bft) 97,87 %
08.08.2018 17:42 24,0 C 24,4 C 23,3 C 66 % 1011,8 hPa 0,0 l/m 2 min 0 min 305 W/m 6,8 km/h (2 Bft) 97,87 %
08.08.2018 17:44 24,0 C 24,4 C 23,3 C 65 % 1011,9 hPa 0,0 l/m 0 min 0 min 214 W/m 6,8 km/h (2 Bft) 97,87 %
08.08.2018 17:46 24,1 C 24,4 C 23,3 C 64 % 1012,0 hPa 0,0 l/m 2 min 0 min 314 W/m 9,0 km/h (2 Bft) 95,92 %
08.08.2018 17:48 24,1 C 25,0 C 23,3 C 65 % 1012,0 hPa 0,0 l/m 2 min 0 min 588 W/m 13,5 km/h (3 Bft) 97,87 %
08.08.2018 17:50 24,2 C 24,4 C 23,3 C 65 % 1011,9 hPa 0,0 l/m 0 min 0 min 202 W/m 6,8 km/h (2 Bft) 95,65 %
08.08.2018 17:52 24,2 C 24,4 C 23,3 C 65 % 1012,0 hPa 0,0 l/m 0 min 0 min 206 W/m 11,3 km/h (2 Bft) 97,87 %
08.08.2018 17:54 24,3 C 24,4 C 23,3 C 63 % 1011,9 hPa 0,0 l/m 2 min 0 min 283 W/m 9,0 km/h (2 Bft) 97,87 %
08.08.2018 17:56 24,3 C 23,9 C 23,3 C 62 % 1012,0 hPa 0,0 l/m 2 min 0 min 246 W/m 11,3 km/h (2 Bft) 97,87 %
08.08.2018 17:58 24,3 C 23,9 C 22,8 C 62 % 1012,0 hPa 0,0 l/m 0 min 0 min 128 W/m 6,8 km/h (2 Bft) 97,87 %
08.08.2018 18:00 24,3 C 23,9 C 22,8 C 63 % 1011,9 hPa 0,0 l/m 0 min 0 min 158 W/m 6,8 km/h (2 Bft) 97,87 %
08.08.2018 18:02 24,3 C 23,9 C 22,8 C 62 % 1011,9 hPa 0,0 l/m 2 min 0 min 475 W/m 6,8 km/h (2 Bft) 100,00 %
08.08.2018 18:04 24,3 C 23,9 C 22,8 C 62 % 1011,9 hPa 0,0 l/m 0 min 0 min 192 W/m 6,8 km/h (2 Bft) 97,87 %
08.08.2018 18:08 24,3 C 23,9 C 22,8 C 61 % 1011,9 hPa 0,0 l/m 0 min 0 min 197 W/m 13,5 km/h (3 Bft) 98,94 %
08.08.2018 18:10 24,3 C 23,9 C 22,8 C 62 % 1011,8 hPa 0,0 l/m 2 min 0 min 253 W/m 11,3 km/h (2 Bft) 100,00 %
08.08.2018 18:12 24,3 C 23,9 C 23,3 C 62 % 1011,8 hPa 0,0 l/m 2 min 0 min 398 W/m 6,8 km/h (2 Bft) 100,00 %
08.08.2018 18:14 24,3 C 23,9 C 22,8 C 61 % 1011,8 hPa 0,0 l/m 2 min 0 min 361 W/m 9,0 km/h (2 Bft) 97,87 %
08.08.2018 18:16 24,3 C 23,9 C 22,8 C 61 % 1011,9 hPa 0,0 l/m 2 min 0 min 257 W/m 4,5 km/h (1 Bft) 100,00 %
08.08.2018 18:18 24,3 C 23,9 C 22,8 C 61 % 1011,9 hPa 0,0 l/m 0 min 0 min 113 W/m 6,8 km/h (2 Bft) 100,00 %
08.08.2018 18:20 24,3 C 23,9 C 22,8 C 60 % 1011,9 hPa 0,0 l/m 0 min 0 min 134 W/m 6,8 km/h (2 Bft) 100,00 %
08.08.2018 18:22 24,3 C 23,9 C 22,8 C 61 % 1011,9 hPa 0,0 l/m 0 min 0 min 147 W/m 6,8 km/h (2 Bft) 100,00 %
08.08.2018 18:24 24,3 C 23,9 C 22,8 C 60 % 1011,8 hPa 0,0 l/m 0 min 0 min 149 W/m 11,3 km/h (2 Bft) 100,00 %
08.08.2018 18:26 24,3 C 23,9 C 22,8 C 60 % 1011,9 hPa 0,0 l/m 0 min 0 min 128 W/m 4,5 km/h (1 Bft) 100,00 %
08.08.2018 18:28 24,3 C 23,9 C 22,8 C 60 % 1012,0 hPa 0,0 l/m 0 min 0 min 121 W/m 6,8 km/h (2 Bft) 100,00 %
08.08.2018 18:30 24,3 C 23,3 C 22,8 C 61 % 1012,0 hPa 0,0 l/m 0 min 0 min 107 W/m 9,0 km/h (2 Bft) 100,00 %
08.08.2018 18:32 24,3 C 23,3 C 22,8 C 61 % 1012,0 hPa 0,0 l/m 0 min 0 min 115 W/m 6,8 km/h (2 Bft) 95,74 %
08.08.2018 18:34 24,2 C 23,9 C 22,8 C 61 % 1012,0 hPa 0,0 l/m 0 min 0 min 123 W/m 4,5 km/h (1 Bft) 100,00 %
08.08.2018 18:36 24,2 C 23,9 C 22,8 C 61 % 1012,0 hPa 0,0 l/m 0 min 0 min 107 W/m 6,8 km/h (2 Bft) 97,83 %
08.08.2018 18:38 24,2 C 23,9 C 22,8 C 62 % 1012,0 hPa 0,0 l/m 0 min 0 min 99 W/m 11,3 km/h (2 Bft) 100,00 %
08.08.2018 18:40 24,3 C 24,4 C 22,8 C 61 % 1011,9 hPa 0,0 l/m 0 min 0 min 95 W/m 6,8 km/h (2 Bft) 97,87 %
08.08.2018 18:42 24,3 C 24,4 C 22,8 C 61 % 1011,9 hPa 0,0 l/m 0 min 0 min 95 W/m 9,0 km/h (2 Bft) 97,87 %
08.08.2018 18:44 24,3 C 24,4 C 22,8 C 61 % 1011,9 hPa 0,0 l/m 0 min 0 min 96 W/m 6,8 km/h (2 Bft) 97,87 %
08.08.2018 18:46 24,3 C 24,4 C 22,8 C 61 % 1011,9 hPa 0,0 l/m 0 min 0 min 98 W/m 11,3 km/h (2 Bft) 97,87 %
08.08.2018 18:48 24,3 C 24,4 C 22,8 C 61 % 1012,0 hPa 0,0 l/m 0 min 0 min 106 W/m 6,8 km/h (2 Bft) 97,83 %
08.08.2018 18:50 24,3 C 24,4 C 23,3 C 61 % 1011,9 hPa 0,0 l/m 0 min 0 min 99 W/m 9,0 km/h (2 Bft) 97,87 %
08.08.2018 18:52 24,4 C 24,4 C 23,3 C 61 % 1011,8 hPa 0,0 l/m 0 min 0 min 89 W/m 4,5 km/h (1 Bft) 97,87 %
08.08.2018 18:54 24,4 C 24,4 C 22,8 C 61 % 1011,8 hPa 0,0 l/m 0 min 0 min 87 W/m 9,0 km/h (2 Bft) 97,87 %
08.08.2018 18:56 24,4 C 23,9 C 22,8 C 61 % 1011,9 hPa 0,0 l/m 0 min 0 min 82 W/m 11,3 km/h (2 Bft) 95,74 %
08.08.2018 18:58 24,4 C 23,9 C 22,8 C 60 % 1011,9 hPa 0,0 l/m 0 min 0 min 80 W/m 6,8 km/h (2 Bft) 95,74 %
08.08.2018 19:00 24,4 C 23,9 C 22,8 C 61 % 1011,9 hPa 0,0 l/m 0 min 0 min 78 W/m 4,5 km/h (1 Bft) 97,83 %
08.08.2018 19:02 24,4 C 24,4 C 22,8 C 61 % 1011,9 hPa 0,0 l/m 0 min 0 min 77 W/m 4,5 km/h (1 Bft) 97,96 %
08.08.2018 19:04 24,4 C 24,4 C 22,8 C 61 % 1012,0 hPa 0,0 l/m 0 min 0 min 76 W/m 4,5 km/h (1 Bft) 97,87 %
08.08.2018 19:06 24,5 C 24,4 C 22,8 C 61 % 1012,0 hPa 0,0 l/m 0 min 0 min 75 W/m 9,0 km/h (2 Bft) 93,62 %
08.08.2018 19:08 24,5 C 24,4 C 22,8 C 61 % 1011,9 hPa 0,0 l/m 0 min 0 min 74 W/m 6,8 km/h (2 Bft) 93,62 %
08.08.2018 19:10 24,5 C 24,4 C 22,8 C 61 % 1011,9 hPa 0,0 l/m 0 min 0 min 72 W/m 6,8 km/h (2 Bft) 95,74 %
08.08.2018 19:12 24,5 C 23,9 C 22,8 C 61 % 1011,9 hPa 0,0 l/m 0 min 0 min 70 W/m 4,5 km/h (1 Bft) 95,65 %
08.08.2018 19:14 24,5 C 23,9 C 22,8 C 62 % 1011,9 hPa 0,0 l/m 0 min 0 min 70 W/m 4,5 km/h (1 Bft) 95,74 %
08.08.2018 19:16 24,5 C 23,9 C 22,8 C 61 % 1011,9 hPa 0,0 l/m 0 min 0 min 77 W/m 6,8 km/h (2 Bft) 97,87 %
08.08.2018 19:18 24,5 C 23,9 C 22,8 C 61 % 1011,9 hPa 0,0 l/m 0 min 0 min 67 W/m 6,8 km/h (2 Bft) 95,74 %
08.08.2018 19:20 24,5 C 23,9 C 22,8 C 61 % 1011,9 hPa 0,0 l/m 0 min 0 min 65 W/m 4,5 km/h (1 Bft) 97,87 %
08.08.2018 19:22 24,4 C 23,9 C 22,8 C 60 % 1011,9 hPa 0,0 l/m 0 min 0 min 63 W/m 6,8 km/h (2 Bft) 97,87 %
08.08.2018 19:24 24,4 C 23,9 C 22,8 C 60 % 1012,0 hPa 0,0 l/m 0 min 0 min 63 W/m 6,8 km/h (2 Bft) 97,83 %
08.08.2018 19:26 24,3 C 23,3 C 22,8 C 60 % 1011,9 hPa 0,0 l/m 0 min 0 min 62 W/m 9,0 km/h (2 Bft) 97,87 %
08.08.2018 19:28 24,3 C 23,3 C 22,2 C 60 % 1011,9 hPa 0,0 l/m 0 min 0 min 60 W/m 6,8 km/h (2 Bft) 95,74 %
08.08.2018 19:30 24,3 C 23,3 C 22,8 C 60 % 1011,9 hPa 0,0 l/m 0 min 0 min 59 W/m 6,8 km/h (2 Bft) 95,74 %
08.08.2018 19:32 24,2 C 23,3 C 22,2 C 61 % 1011,9 hPa 0,0 l/m 0 min 0 min 57 W/m 11,3 km/h (2 Bft) 95,74 %
08.08.2018 19:34 24,2 C 23,3 C 22,2 C 61 % 1011,9 hPa 0,0 l/m 0 min 0 min 55 W/m 4,5 km/h (1 Bft) 95,74 %
08.08.2018 19:36 24,2 C 23,3 C 22,2 C 61 % 1011,9 hPa 0,0 l/m 0 min 0 min 54 W/m 9,0 km/h (2 Bft) 95,65 %
08.08.2018 19:38 24,2 C 23,3 C 22,2 C 60 % 1011,9 hPa 0,0 l/m 0 min 0 min 52 W/m 9,0 km/h (2 Bft) 93,62 %
08.08.2018 19:40 24,1 C 22,8 C 22,2 C 60 % 1011,8 hPa 0,0 l/m 0 min 0 min 51 W/m 9,0 km/h (2 Bft) 97,87 %
08.08.2018 19:42 24,1 C 22,8 C 22,2 C 60 % 1011,9 hPa 0,0 l/m 0 min 0 min 49 W/m 4,5 km/h (1 Bft) 95,74 %
08.08.2018 19:44 24,0 C 22,8 C 22,2 C 60 % 1011,9 hPa 0,0 l/m 0 min 0 min 49 W/m 9,0 km/h (2 Bft) 97,87 %
08.08.2018 19:46 23,9 C 22,8 C 22,2 C 60 % 1011,9 hPa 0,0 l/m 0 min 0 min 47 W/m 4,5 km/h (1 Bft) 97,83 %
08.08.2018 19:48 23,9 C 22,8 C 22,2 C 61 % 1011,9 hPa 0,0 l/m 0 min 0 min 47 W/m 4,5 km/h (1 Bft) 93,62 %
08.08.2018 19:50 23,9 C 22,8 C 22,2 C 61 % 1011,8 hPa 0,0 l/m 0 min 0 min 47 W/m 2,3 km/h (1 Bft) 95,74 %
08.08.2018 19:52 23,8 C 22,8 C 22,2 C 61 % 1011,9 hPa 0,0 l/m 0 min 0 min 47 W/m 4,5 km/h (1 Bft) 95,74 %
08.08.2018 19:54 23,8 C 22,8 C 22,2 C 61 % 1011,8 hPa 0,0 l/m 0 min 0 min 47 W/m 4,5 km/h (1 Bft) 95,74 %
08.08.2018 19:56 23,8 C 22,8 C 22,2 C 61 % 1011,8 hPa 0,0 l/m 0 min 0 min 46 W/m 6,8 km/h (2 Bft) 97,87 %
08.08.2018 19:58 23,8 C 22,8 C 22,2 C 61 % 1011,9 hPa 0,0 l/m 0 min 0 min 45 W/m 6,8 km/h (2 Bft) 93,48 %
08.08.2018 20:00 23,7 C 22,8 C 21,7 C 61 % 1011,9 hPa 0,0 l/m 0 min 0 min 44 W/m 4,5 km/h (1 Bft) 93,62 %
08.08.2018 20:02 23,7 C 22,8 C 21,7 C 61 % 1012,0 hPa 0,0 l/m 0 min 0 min 43 W/m 6,8 km/h (2 Bft) 94,12 %
08.08.2018 20:04 23,7 C 22,8 C 21,7 C 61 % 1012,0 hPa 0,0 l/m 0 min 0 min 42 W/m 9,0 km/h (2 Bft) 95,74 %
08.08.2018 20:06 23,6 C 22,2 C 21,7 C 62 % 1012,0 hPa 0,0 l/m 0 min 0 min 42 W/m 4,5 km/h (1 Bft) 93,62 %
08.08.2018 20:08 23,6 C 22,2 C 21,7 C 62 % 1011,9 hPa 0,0 l/m 0 min 0 min 40 W/m 11,3 km/h (2 Bft) 93,62 %
08.08.2018 20:10 23,5 C 22,2 C 21,7 C 62 % 1012,0 hPa 0,0 l/m 0 min 0 min 39 W/m 6,8 km/h (2 Bft) 95,65 %
08.08.2018 20:12 23,5 C 22,2 C 21,7 C 62 % 1012,0 hPa 0,0 l/m 0 min 0 min 37 W/m 6,8 km/h (2 Bft) 93,62 %
08.08.2018 20:14 23,4 C 22,2 C 21,7 C 61 % 1012,1 hPa 0,0 l/m 0 min 0 min 37 W/m 4,5 km/h (1 Bft) 95,74 %
08.08.2018 20:16 23,4 C 22,2 C 21,7 C 62 % 1012,2 hPa 0,0 l/m 0 min 0 min 36 W/m 4,5 km/h (1 Bft) 95,74 %
08.08.2018 20:18 23,4 C 22,2 C 21,7 C 62 % 1012,2 hPa 0,0 l/m 0 min 0 min 35 W/m 6,8 km/h (2 Bft) 93,62 %
08.08.2018 20:20 23,3 C 22,2 C 21,7 C 62 % 1012,2 hPa 0,0 l/m 0 min 0 min 33 W/m 6,8 km/h (2 Bft) 97,87 %
08.08.2018 20:22 23,3 C 22,2 C 21,7 C 62 % 1012,2 hPa 0,0 l/m 0 min 0 min 32 W/m 9,0 km/h (2 Bft) 97,83 %
08.08.2018 20:24 23,2 C 21,7 C 21,7 C 62 % 1012,2 hPa 0,0 l/m 0 min 0 min 32 W/m 9,0 km/h (2 Bft) 97,87 %
08.08.2018 20:26 23,2 C 21,7 C 21,1 C 62 % 1012,2 hPa 0,0 l/m 0 min 0 min 30 W/m 6,8 km/h (2 Bft) 97,87 %
08.08.2018 20:28 23,2 C 21,7 C 21,1 C 62 % 1012,2 hPa 0,0 l/m 0 min 0 min 29 W/m 2,3 km/h (1 Bft) 95,74 %
08.08.2018 20:30 23,1 C 21,7 C 21,1 C 63 % 1012,2 hPa 0,0 l/m 0 min 0 min 28 W/m 4,5 km/h (1 Bft) 97,87 %
08.08.2018 20:32 23,1 C 21,7 C 21,1 C 63 % 1012,2 hPa 0,0 l/m 0 min 0 min 26 W/m 4,5 km/h (1 Bft) 100,00 %
08.08.2018 20:34 23,1 C 21,7 C 21,1 C 63 % 1012,2 hPa 0,0 l/m 0 min 0 min 25 W/m 6,8 km/h (2 Bft) 97,87 %
08.08.2018 20:36 23,0 C 21,7 C 21,1 C 63 % 1012,2 hPa 0,0 l/m 0 min 0 min 25 W/m 4,5 km/h (1 Bft) 97,87 %
08.08.2018 20:38 23,0 C 21,7 C 21,1 C 63 % 1012,2 hPa 0,0 l/m 0 min 0 min 25 W/m 4,5 km/h (1 Bft) 100,00 %
08.08.2018 20:40 22,9 C 21,1 C 21,1 C 64 % 1012,2 hPa 0,0 l/m 0 min 0 min 23 W/m 4,5 km/h (1 Bft) 100,00 %
08.08.2018 20:42 22,9 C 21,1 C 21,1 C 64 % 1012,3 hPa 0,0 l/m 0 min 0 min 23 W/m 4,5 km/h (1 Bft) 100,00 %
08.08.2018 20:44 22,9 C 21,1 C 21,1 C 64 % 1012,3 hPa 0,0 l/m 0 min 0 min 23 W/m 4,5 km/h (1 Bft) 100,00 %
08.08.2018 20:46 22,8 C 21,1 C 21,1 C 64 % 1012,4 hPa 0,0 l/m 2 min 0 min 23 W/m 2,3 km/h (1 Bft) 97,87 %
08.08.2018 20:48 22,8 C 21,1 C 21,1 C 64 % 1012,4 hPa 0,0 l/m 2 min 0 min 23 W/m 2,3 km/h (1 Bft) 100,00 %
08.08.2018 20:50 22,7 C 21,1 C 21,1 C 64 % 1012,5 hPa 0,0 l/m 2 min 0 min 21 W/m 4,5 km/h (1 Bft) 100,00 %
08.08.2018 20:52 22,7 C 21,1 C 21,1 C 64 % 1012,5 hPa 0,0 l/m 2 min 0 min 20 W/m 4,5 km/h (1 Bft) 100,00 %
08.08.2018 20:54 22,7 C 21,1 C 20,6 C 65 % 1012,5 hPa 0,0 l/m 0 min 0 min 19 W/m 4,5 km/h (1 Bft) 100,00 %
08.08.2018 20:56 22,6 C 21,1 C 20,6 C 65 % 1012,5 hPa 0,0 l/m 0 min 0 min 17 W/m 4,5 km/h (1 Bft) 100,00 %
08.08.2018 20:58 22,6 C 21,1 C 20,6 C 65 % 1012,5 hPa 0,0 l/m 0 min 0 min 16 W/m 4,5 km/h (1 Bft) 100,00 %
08.08.2018 21:00 22,6 C 21,1 C 20,6 C 65 % 1012,5 hPa 0,0 l/m 0 min 0 min 13 W/m 4,5 km/h (1 Bft) 100,00 %
08.08.2018 21:02 22,5 C 21,1 C 20,6 C 65 % 1012,6 hPa 0,0 l/m 0 min 0 min 11 W/m 4,5 km/h (1 Bft) 100,00 %
08.08.2018 21:04 22,4 C 20,6 C 20,6 C 65 % 1012,6 hPa 0,0 l/m 0 min 0 min 10 W/m 2,3 km/h (1 Bft) 100,00 %
08.08.2018 21:06 22,4 C 20,6 C 20,6 C 65 % 1012,7 hPa 0,0 l/m 0 min 0 min 8 W/m 4,5 km/h (1 Bft) 100,00 %
08.08.2018 21:08 22,4 C 20,6 C 20,6 C 65 % 1012,7 hPa 0,0 l/m 0 min 0 min 7 W/m 0,0 km/h (0 Bft) 100,00 %
08.08.2018 21:10 22,3 C 20,6 C 20,6 C 66 % 1012,7 hPa 0,0 l/m 0 min 0 min 6 W/m 2,3 km/h (1 Bft) 100,00 %
08.08.2018 21:12 22,3 C 20,6 C 20,6 C 66 % 1012,7 hPa 0,0 l/m 0 min 0 min 5 W/m 4,5 km/h (1 Bft) 97,87 %
08.08.2018 21:14 22,2 C 20,6 C 20,6 C 66 % 1012,8 hPa 0,0 l/m 0 min 0 min 5 W/m 2,3 km/h (1 Bft) 100,00 %
08.08.2018 21:16 22,2 C 20,6 C 20,6 C 66 % 1012,8 hPa 0,0 l/m 0 min 0 min 2 W/m 4,5 km/h (1 Bft) 100,00 %
08.08.2018 21:18 22,1 C 20,6 C 20,6 C 66 % 1012,8 hPa 0,0 l/m 0 min 0 min 0 W/m 2,3 km/h (1 Bft) 97,87 %
08.08.2018 21:20 22,1 C 20,6 C 20,0 C 66 % 1012,8 hPa 0,0 l/m 0 min 0 min 0 W/m 4,5 km/h (1 Bft) 100,00 %
08.08.2018 21:22 22,1 C 20,0 C 20,0 C 66 % 1012,7 hPa 0,0 l/m 0 min 0 min 0 W/m 6,8 km/h (2 Bft) 97,87 %
08.08.2018 21:24 22,0 C 20,0 C 20,0 C 66 % 1012,8 hPa 0,0 l/m 0 min 0 min 0 W/m 4,5 km/h (1 Bft) 100,00 %
08.08.2018 21:26 21,9 C 20,0 C 20,0 C 66 % 1012,9 hPa 0,0 l/m 0 min 0 min 0 W/m 2,3 km/h (1 Bft) 100,00 %
08.08.2018 21:28 21,9 C 20,0 C 20,0 C 67 % 1013,0 hPa 0,0 l/m 0 min 0 min 0 W/m 2,3 km/h (1 Bft) 100,00 %
08.08.2018 21:30 21,9 C 20,0 C 20,0 C 67 % 1013,0 hPa 0,0 l/m 0 min 0 min 0 W/m 4,5 km/h (1 Bft) 100,00 %
08.08.2018 21:32 21,9 C 20,0 C 20,0 C 67 % 1013,1 hPa 0,0 l/m 0 min 0 min 0 W/m 2,3 km/h (1 Bft) 100,00 %
08.08.2018 21:34 21,8 C 20,0 C 20,0 C 67 % 1013,1 hPa 0,0 l/m 0 min 0 min 0 W/m 0,0 km/h (0 Bft) 100,00 %
08.08.2018 21:36 21,8 C 20,0 C 20,0 C 68 % 1013,1 hPa 0,0 l/m 0 min 0 min 0 W/m 0,0 km/h (0 Bft) 100,00 %
08.08.2018 21:38 21,8 C 20,0 C 20,0 C 68 % 1013,1 hPa 0,0 l/m 0 min 0 min 0 W/m 0,0 km/h (0 Bft) 100,00 %
08.08.2018 21:40 21,7 C 20,0 C 20,0 C 69 % 1013,3 hPa 0,0 l/m 0 min 0 min 0 W/m 2,3 km/h (1 Bft) 97,87 %
08.08.2018 21:42 21,7 C 20,0 C 20,0 C 68 % 1013,2 hPa 0,0 l/m 0 min 0 min 0 W/m 4,5 km/h (1 Bft) 100,00 %
08.08.2018 21:44 21,6 C 20,0 C 20,0 C 68 % 1013,2 hPa 0,0 l/m 0 min 0 min 0 W/m 4,5 km/h (1 Bft) 100,00 %
08.08.2018 21:46 21,6 C 20,0 C 20,0 C 68 % 1013,2 hPa 0,0 l/m 0 min 0 min 0 W/m 2,3 km/h (1 Bft) 100,00 %
08.08.2018 21:48 21,5 C 19,4 C 20,0 C 68 % 1013,3 hPa 0,0 l/m 0 min 0 min 0 W/m 2,3 km/h (1 Bft) 100,00 %
08.08.2018 21:50 21,5 C 19,4 C 19,4 C 68 % 1013,3 hPa 0,0 l/m 0 min 0 min 0 W/m 4,5 km/h (1 Bft) 100,00 %
08.08.2018 21:52 21,4 C 19,4 C 19,4 C 69 % 1013,3 hPa 0,0 l/m 0 min 0 min 0 W/m 2,3 km/h (1 Bft) 100,00 %
08.08.2018 21:54 21,4 C 19,4 C 19,4 C 69 % 1013,3 hPa 0,0 l/m 0 min 0 min 0 W/m 4,5 km/h (1 Bft) 97,87 %
08.08.2018 21:56 21,3 C 19,4 C 19,4 C 69 % 1013,3 hPa 0,0 l/m 0 min 0 min 0 W/m 4,5 km/h (1 Bft) 97,87 %
08.08.2018 21:58 21,3 C 19,4 C 19,4 C 69 % 1013,4 hPa 0,0 l/m 0 min 0 min 0 W/m 2,3 km/h (1 Bft) 100,00 %
08.08.2018 22:00 21,2 C 19,4 C 19,4 C 69 % 1013,4 hPa 0,0 l/m 0 min 0 min 0 W/m 0,0 km/h (0 Bft) 100,00 %
08.08.2018 22:02 21,2 C 19,4 C 19,4 C 69 % 1013,4 hPa 0,0 l/m 0 min 0 min 0 W/m 4,5 km/h (1 Bft) 100,00 %
08.08.2018 22:04 21,1 C 19,4 C 19,4 C 69 % 1013,3 hPa 0,0 l/m 0 min 0 min 0 W/m 2,3 km/h (1 Bft) 100,00 %
08.08.2018 22:06 21,1 C 19,4 C 19,4 C 69 % 1013,5 hPa 0,0 l/m 0 min 0 min 0 W/m 0,0 km/h (0 Bft) 95,74 %
08.08.2018 22:08 21,0 C 19,4 C 19,4 C 70 % 1013,5 hPa 0,0 l/m 0 min 0 min 0 W/m 0,0 km/h (0 Bft) 95,74 %
08.08.2018 22:10 21,0 C 18,9 C 19,4 C 71 % 1013,5 hPa 0,0 l/m 0 min 0 min 0 W/m 0,0 km/h (0 Bft) 97,83 %
08.08.2018 22:12 21,0 C 18,9 C 19,4 C 71 % 1013,4 hPa 0,0 l/m 0 min 0 min 0 W/m 2,3 km/h (1 Bft) 97,87 %
08.08.2018 22:14 20,9 C 18,9 C 18,9 C 71 % 1013,5 hPa 0,0 l/m 0 min 0 min 0 W/m 0,0 km/h (0 Bft) 95,74 %
08.08.2018 22:16 20,9 C 18,9 C 18,9 C 71 % 1013,4 hPa 0,0 l/m 0 min 0 min 0 W/m 0,0 km/h (0 Bft) 95,74 %
08.08.2018 22:18 20,8 C 18,9 C 18,9 C 72 % 1013,5 hPa 0,0 l/m 0 min 0 min 0 W/m 0,0 km/h (0 Bft) 97,87 %
08.08.2018 22:20 20,8 C 18,9 C 18,9 C 72 % 1013,5 hPa 0,0 l/m 0 min 0 min 0 W/m 2,3 km/h (1 Bft) 95,74 %
08.08.2018 22:22 20,8 C 18,9 C 18,9 C 72 % 1013,5 hPa 0,0 l/m 0 min 0 min 0 W/m 4,5 km/h (1 Bft) 95,65 %
08.08.2018 22:24 20,7 C 18,9 C 18,9 C 71 % 1013,5 hPa 0,0 l/m 0 min 0 min 0 W/m 2,3 km/h (1 Bft) 95,74 %
08.08.2018 22:26 20,7 C 18,3 C 18,9 C 71 % 1013,5 hPa 0,0 l/m 0 min 0 min 0 W/m 0,0 km/h (0 Bft) 95,74 %
08.08.2018 22:28 20,6 C 18,3 C 18,9 C 72 % 1013,5 hPa 0,0 l/m 0 min 0 min 0 W/m 2,3 km/h (1 Bft) 95,74 %
08.08.2018 22:30 20,6 C 18,3 C 18,3 C 71 % 1013,5 hPa 0,0 l/m 0 min 0 min 0 W/m 0,0 km/h (0 Bft) 95,74 %
08.08.2018 22:32 20,6 C 18,3 C 18,3 C 71 % 1013,5 hPa 0,0 l/m 0 min 0 min 0 W/m 0,0 km/h (0 Bft) 91,49 %
08.08.2018 22:34 20,5 C 18,3 C 18,3 C 72 % 1013,5 hPa 0,0 l/m 0 min 0 min 0 W/m 0,0 km/h (0 Bft) 93,48 %
08.08.2018 22:36 20,4 C 18,3 C 18,3 C 72 % 1013,5 hPa 0,0 l/m 0 min 0 min 0 W/m 0,0 km/h (0 Bft) 91,67 %
08.08.2018 22:38 20,4 C 18,3 C 18,3 C 72 % 1013,6 hPa 0,0 l/m 0 min 0 min 0 W/m 0,0 km/h (0 Bft) 93,62 %
08.08.2018 22:40 20,3 C 18,3 C 18,3 C 73 % 1013,6 hPa 0,0 l/m 0 min 0 min 0 W/m 0,0 km/h (0 Bft) 91,49 %
08.08.2018 22:42 20,3 C 18,3 C 18,3 C 73 % 1013,6 hPa 0,0 l/m 0 min 0 min 0 W/m 0,0 km/h (0 Bft) 93,62 %
08.08.2018 22:44 20,2 C 18,3 C 18,3 C 73 % 1013,6 hPa 0,0 l/m 0 min 0 min 0 W/m 0,0 km/h (0 Bft) 93,48 %
08.08.2018 22:46 20,2 C 18,3 C 18,3 C 74 % 1013,6 hPa 0,0 l/m 0 min 0 min 0 W/m 0,0 km/h (0 Bft) 93,62 %
08.08.2018 22:48 20,1 C 18,3 C 18,3 C 75 % 1013,5 hPa 0,0 l/m 0 min 0 min 0 W/m 0,0 km/h (0 Bft) 91,49 %
08.08.2018 22:50 20,1 C 17,8 C 17,8 C 75 % 1013,6 hPa 0,0 l/m 0 min 0 min 0 W/m 0,0 km/h (0 Bft) 93,62 %
08.08.2018 22:52 20,0 C 17,8 C 17,8 C 74 % 1013,5 hPa 0,0 l/m 0 min 0 min 0 W/m 2,3 km/h (1 Bft) 91,67 %
08.08.2018 22:54 19,9 C 17,8 C 17,8 C 74 % 1013,5 hPa 0,0 l/m 0 min 0 min 0 W/m 0,0 km/h (0 Bft) 93,62 %
08.08.2018 22:56 19,9 C 17,8 C 17,8 C 74 % 1013,5 hPa 0,0 l/m 0 min 0 min 0 W/m 0,0 km/h (0 Bft) 93,48 %
08.08.2018 22:58 19,9 C 17,8 C 17,8 C 73 % 1013,5 hPa 0,0 l/m 0 min 0 min 0 W/m 0,0 km/h (0 Bft) 95,74 %
08.08.2018 23:00 19,8 C 17,8 C 17,8 C 73 % 1013,5 hPa 0,0 l/m 0 min 0 min 0 W/m 0,0 km/h (0 Bft) 93,62 %
08.08.2018 23:02 19,8 C 17,8 C 17,8 C 73 % 1013,4 hPa 0,0 l/m 0 min 0 min 0 W/m 0,0 km/h (0 Bft) 93,75 %
08.08.2018 23:04 19,7 C 17,8 C 17,8 C 74 % 1013,5 hPa 0,0 l/m 0 min 0 min 0 W/m 0,0 km/h (0 Bft) 91,43 %
08.08.2018 23:06 19,7 C 17,8 C 17,2 C 74 % 1013,5 hPa 0,0 l/m 0 min 0 min 0 W/m 0,0 km/h (0 Bft) 94,55 %
08.08.2018 23:08 19,6 C 17,2 C 17,2 C 74 % 1013,6 hPa 0,0 l/m 0 min 0 min 0 W/m 0,0 km/h (0 Bft) 93,48 %
08.08.2018 23:10 19,6 C 17,2 C 17,2 C 74 % 1013,6 hPa 0,0 l/m 0 min 0 min 0 W/m 0,0 km/h (0 Bft) 93,62 %
08.08.2018 23:12 19,5 C 17,2 C 17,2 C 74 % 1013,6 hPa 0,0 l/m 0 min 0 min 0 W/m 0,0 km/h (0 Bft) 93,62 %
08.08.2018 23:14 19,4 C 17,2 C 17,2 C 74 % 1013,6 hPa 0,0 l/m 0 min 0 min 0 W/m 0,0 km/h (0 Bft) 97,87 %
08.08.2018 23:16 19,4 C 17,2 C 17,2 C 74 % 1013,5 hPa 0,0 l/m 0 min 0 min 0 W/m 0,0 km/h (0 Bft) 97,87 %
08.08.2018 23:18 19,3 C 17,2 C 17,2 C 74 % 1013,5 hPa 0,0 l/m 0 min 0 min 0 W/m 0,0 km/h (0 Bft) 97,87 %
08.08.2018 23:20 19,2 C 17,2 C 17,2 C 75 % 1013,5 hPa 0,0 l/m 0 min 0 min 0 W/m 0,0 km/h (0 Bft) 97,83 %
08.08.2018 23:22 19,2 C 17,2 C 17,2 C 75 % 1013,5 hPa 0,0 l/m 0 min 0 min 0 W/m 0,0 km/h (0 Bft) 97,87 %
08.08.2018 23:24 19,1 C 17,2 C 17,2 C 75 % 1013,5 hPa 0,0 l/m 0 min 0 min 0 W/m 0,0 km/h (0 Bft) 100,00 %
08.08.2018 23:26 19,1 C 17,2 C 17,2 C 75 % 1013,6 hPa 0,0 l/m 0 min 0 min 0 W/m 0,0 km/h (0 Bft) 100,00 %
08.08.2018 23:28 19,1 C 17,2 C 17,2 C 75 % 1013,6 hPa 0,0 l/m 0 min 0 min 0 W/m 0,0 km/h (0 Bft) 97,87 %
08.08.2018 23:30 19,0 C 17,2 C 17,2 C 76 % 1013,6 hPa 0,0 l/m 0 min 0 min 0 W/m 0,0 km/h (0 Bft) 97,87 %
08.08.2018 23:32 18,9 C 16,7 C 17,2 C 76 % 1013,5 hPa 0,0 l/m 0 min 0 min 0 W/m 0,0 km/h (0 Bft) 97,83 %
08.08.2018 23:34 18,9 C 16,7 C 16,7 C 76 % 1013,6 hPa 0,0 l/m 0 min 0 min 0 W/m 0,0 km/h (0 Bft) 100,00 %
08.08.2018 23:36 18,8 C 16,7 C 16,7 C 76 % 1013,5 hPa 0,0 l/m 0 min 0 min 0 W/m 0,0 km/h (0 Bft) 95,74 %
08.08.2018 23:38 18,8 C 16,7 C 16,7 C 77 % 1013,5 hPa 0,0 l/m 0 min 0 min 0 W/m 0,0 km/h (0 Bft) 100,00 %
08.08.2018 23:40 18,8 C 16,7 C 16,7 C 77 % 1013,5 hPa 0,0 l/m 0 min 0 min 0 W/m 0,0 km/h (0 Bft) 100,00 %
08.08.2018 23:42 18,7 C 16,7 C 16,7 C 77 % 1013,5 hPa 0,0 l/m 0 min 0 min 0 W/m 0,0 km/h (0 Bft) 97,87 %
08.08.2018 23:44 18,7 C 16,7 C 16,7 C 78 % 1013,5 hPa 0,0 l/m 0 min 0 min 0 W/m 0,0 km/h (0 Bft) 97,83 %
08.08.2018 23:46 18,7 C 16,7 C 16,7 C 78 % 1013,5 hPa 0,0 l/m 0 min 0 min 0 W/m 0,0 km/h (0 Bft) 100,00 %
08.08.2018 23:48 18,6 C 16,7 C 16,7 C 78 % 1013,6 hPa 0,0 l/m 0 min 0 min 0 W/m 0,0 km/h (0 Bft) 97,87 %
08.08.2018 23:50 18,6 C 16,7 C 16,7 C 78 % 1013,5 hPa 0,0 l/m 0 min 0 min 0 W/m 0,0 km/h (0 Bft) 100,00 %
08.08.2018 23:52 18,5 C 16,7 C 16,7 C 78 % 1013,5 hPa 0,0 l/m 0 min 0 min 0 W/m 0,0 km/h (0 Bft) 100,00 %
08.08.2018 23:54 18,5 C 16,7 C 16,7 C 78 % 1013,5 hPa 0,0 l/m 0 min 0 min 0 W/m 0,0 km/h (0 Bft) 97,87 %
08.08.2018 23:56 18,4 C 16,7 C 16,7 C 78 % 1013,5 hPa 0,0 l/m 0 min 0 min 0 W/m 0,0 km/h (0 Bft) 100,00 %
08.08.2018 23:58 18,4 C 16,7 C 16,7 C 78 % 1013,5 hPa 0,0 l/m 0 min 0 min 0 W/m 0,0 km/h (0 Bft) 100,00 %
_ Min-Zeit 23:56 23:32 23:34 00:46 01:38 - - - - 01:24 13:00
Minimum _ 18,4 C 16,7 C 16,7 C 47 % 1003,0 hPa - - - - 0,0 km/h (0 Bft) 89,13 %
_ Max-Zeit 00:52 12:06 13:00 07:50 22:38 05:42 09:12 05:40 12:06 12:06 00:02
Maximum _ 26,7 C 31,1 C 25,0 C 94 % 1013,6 hPa 0,2 l/m 2 min 5 min 825 W/m 22,5 km/h
S (4 Bft)
100,00 %
Durchschnitt _ 23,5 C 22,6 C 21,7 C 70 % 1009,0 hPa #4,2 l/m #2:14 h #2:12 h 193 W/m 6,4 km/h (2 Bft) 97,52 %
© 2018 W. Hausmann